Time,TemperatureF,DewpointF,PressureIn,WindDirection,WindDirectionDegrees,WindSpeedMPH,WindSpeedGustMPH,Humidity,HourlyPrecipIn,Conditions,Clouds,dailyrainin,SoftwareType,DateUTC
2013-06-07 00:00:00,58.4,52.3,29.87,ENE,76,4.0,5.0,80,0.00,,---,0.00,VWS V14.00,2013-06-07 04:00:00,
2013-06-07 00:01:00,58.4,52.3,29.87,ENE,78,4.0,6.0,80,0.00,,---,0.00,VWS V14.00,2013-06-07 04:01:00,
2013-06-07 00:02:00,58.4,51.9,29.87,ENE,78,4.0,6.0,79,0.00,,---,0.00,VWS V14.00,2013-06-07 04:02:00,
2013-06-07 00:03:00,58.5,52.0,29.87,ENE,72,5.0,6.0,79,0.00,,---,0.00,VWS V14.00,2013-06-07 04:03:00,
2013-06-07 00:07:00,58.6,52.5,29.87,ENE,73,3.0,6.0,80,0.00,,---,0.00,VWS V14.00,2013-06-07 04:07:00,
2013-06-07 00:08:00,58.6,52.1,29.87,ENE,71,4.0,6.0,79,0.00,,---,0.00,VWS V14.00,2013-06-07 04:08:00,
2013-06-07 00:09:00,58.5,52.4,29.87,ENE,69,3.0,6.0,80,0.00,,---,0.00,VWS V14.00,2013-06-07 04:09:00,
2013-06-07 00:10:00,58.5,52.4,29.87,ENE,67,4.0,6.0,80,0.00,,---,0.00,VWS V14.00,2013-06-07 04:10:00,
2013-06-07 00:12:00,58.6,52.5,29.87,ENE,67,4.0,6.0,80,0.00,,---,0.00,VWS V14.00,2013-06-07 04:12:00,
2013-06-07 00:14:00,58.6,52.5,29.87,ENE,69,4.0,7.0,80,0.00,,---,0.00,VWS V14.00,2013-06-07 04:14:00,
2013-06-07 00:16:00,58.6,52.5,29.86,ENE,67,2.0,7.0,80,0.00,,---,0.00,VWS V14.00,2013-06-07 04:16:00,
2013-06-07 00:19:00,58.7,52.6,29.87,ENE,68,3.0,7.0,80,0.00,,---,0.00,VWS V14.00,2013-06-07 04:19:00,
2013-06-07 00:23:00,58.5,52.0,29.86,ENE,65,4.0,7.0,79,0.00,,---,0.00,VWS V14.00,2013-06-07 04:23:00,
2013-06-07 00:24:00,58.4,51.9,29.86,ENE,72,5.0,7.0,79,0.00,,---,0.00,VWS V14.00,2013-06-07 04:24:00,
2013-06-07 00:25:00,58.4,51.9,29.86,ENE,74,4.0,7.0,79,0.00,,---,0.00,VWS V14.00,2013-06-07 04:25:00,
2013-06-07 00:26:00,58.4,51.9,29.86,ENE,74,3.0,7.0,79,0.00,,---,0.00,VWS V14.00,2013-06-07 04:26:00,
2013-06-07 00:27:00,58.4,51.9,29.86,ENE,74,5.0,7.0,79,0.00,,---,0.00,VWS V14.00,2013-06-07 04:27:00,
2013-06-07 00:28:00,58.3,51.8,29.86,ENE,75,3.0,7.0,79,0.00,,---,0.00,VWS V14.00,2013-06-07 04:28:00,
2013-06-07 00:29:00,58.3,51.8,29.86,ENE,75,6.0,6.0,79,0.00,,---,0.00,VWS V14.00,2013-06-07 04:29:00,
2013-06-07 00:30:00,58.3,51.8,29.86,ENE,69,4.0,7.0,79,0.00,,---,0.00,VWS V14.00,2013-06-07 04:30:00,
2013-06-07 00:31:00,58.3,51.8,29.86,ENE,69,3.0,7.0,79,0.00,,---,0.00,VWS V14.00,2013-06-07 04:31:00,
2013-06-07 00:32:00,58.3,51.8,29.86,ENE,77,5.0,7.0,79,0.00,,---,0.00,VWS V14.00,2013-06-07 04:32:00,
2013-06-07 00:34:00,58.3,51.8,29.86,ENE,75,4.0,7.0,79,0.00,,---,0.00,VWS V14.00,2013-06-07 04:34:00,
2013-06-07 00:35:00,58.2,51.7,29.86,ENE,69,4.0,7.0,79,0.00,,---,0.00,VWS V14.00,2013-06-07 04:35:00,
2013-06-07 00:37:00,58.2,51.7,29.86,ENE,71,4.0,7.0,79,0.00,,---,0.00,VWS V14.00,2013-06-07 04:37:00,
2013-06-07 00:38:00,58.2,51.4,29.86,ENE,69,4.0,7.0,78,0.00,,---,0.00,VWS V14.00,2013-06-07 04:38:00,
2013-06-07 00:40:00,58.1,51.3,29.86,ENE,68,4.0,7.0,78,0.00,,---,0.00,VWS V14.00,2013-06-07 04:40:00,
2013-06-07 00:41:00,58.1,51.3,29.86,ENE,68,4.0,7.0,78,0.00,,---,0.00,VWS V14.00,2013-06-07 04:41:00,
2013-06-07 00:43:00,58.0,51.2,29.86,ENE,68,3.0,7.0,78,0.00,,---,0.00,VWS V14.00,2013-06-07 04:43:00,
2013-06-07 00:44:00,58.0,51.2,29.86,ENE,71,4.0,7.0,78,0.00,,---,0.00,VWS V14.00,2013-06-07 04:44:00,
2013-06-07 00:47:00,57.9,51.1,29.86,East,90,6.0,8.0,78,0.00,,---,0.00,VWS V14.00,2013-06-07 04:47:00,
2013-06-07 00:48:00,57.9,51.1,29.86,East,84,4.0,8.0,78,0.00,,---,0.00,VWS V14.00,2013-06-07 04:48:00,
2013-06-07 00:49:00,57.9,51.4,29.86,ENE,75,7.0,8.0,79,0.00,,---,0.00,VWS V14.00,2013-06-07 04:49:00,
2013-06-07 00:50:00,57.9,51.4,29.86,ENE,74,4.0,8.0,79,0.00,,---,0.00,VWS V14.00,2013-06-07 04:50:00,
2013-06-07 00:54:00,58.0,51.5,29.86,ENE,78,3.0,8.0,79,0.00,,---,0.00,VWS V14.00,2013-06-07 04:54:00,
2013-06-07 00:55:00,58.0,51.5,29.86,ENE,78,3.0,8.0,79,0.00,,---,0.00,VWS V14.00,2013-06-07 04:55:00,
2013-06-07 00:56:00,58.1,51.6,29.86,ENE,78,4.0,8.0,79,0.00,,---,0.00,VWS V14.00,2013-06-07 04:56:00,
2013-06-07 00:58:00,58.0,51.5,29.86,East,79,2.0,8.0,79,0.00,,---,0.00,VWS V14.00,2013-06-07 04:58:00,
2013-06-07 00:59:00,58.1,51.6,29.86,ENE,78,2.0,4.0,79,0.00,,---,0.00,VWS V14.00,2013-06-07 04:59:00,
2013-06-07 01:00:00,58.1,52.0,29.86,ENE,78,1.0,4.0,80,0.00,,---,0.00,VWS V14.00,2013-06-07 05:00:00,
2013-06-07 01:01:00,58.1,52.0,29.86,ENE,76,2.0,4.0,80,0.00,,---,0.00,VWS V14.00,2013-06-07 05:01:00,
2013-06-07 01:03:00,58.1,52.0,29.86,ENE,76,0.0,4.0,80,0.00,,---,0.00,VWS V14.00,2013-06-07 05:03:00,
2013-06-07 01:05:00,58.1,52.0,29.86,ENE,76,0.0,4.0,80,0.00,,---,0.00,VWS V14.00,2013-06-07 05:05:00,
2013-06-07 01:06:00,58.0,51.9,29.86,ENE,76,0.0,4.0,80,0.00,,---,0.00,VWS V14.00,2013-06-07 05:06:00,
2013-06-07 01:08:00,58.0,51.9,29.86,ENE,76,2.0,4.0,80,0.00,,---,0.00,VWS V14.00,2013-06-07 05:08:00,
2013-06-07 01:09:00,57.9,51.8,29.86,ENE,78,4.0,4.0,80,0.00,,---,0.00,VWS V14.00,2013-06-07 05:09:00,
2013-06-07 01:10:00,57.9,51.4,29.86,ENE,78,2.0,4.0,79,0.00,,---,0.00,VWS V14.00,2013-06-07 05:10:00,
2013-06-07 01:11:00,57.8,51.3,29.86,ENE,76,3.0,5.0,79,0.00,,---,0.00,VWS V14.00,2013-06-07 05:11:00,
2013-06-07 01:12:00,57.8,51.7,29.86,ENE,77,3.0,5.0,80,0.00,,---,0.00,VWS V14.00,2013-06-07 05:12:00,
2013-06-07 01:14:00,57.8,51.3,29.86,ENE,76,3.0,5.0,79,0.00,,---,0.00,VWS V14.00,2013-06-07 05:14:00,
2013-06-07 01:16:00,57.8,51.7,29.86,ENE,71,3.0,6.0,80,0.00,,---,0.00,VWS V14.00,2013-06-07 05:16:00,
2013-06-07 01:17:00,57.8,51.7,29.86,ENE,71,4.0,6.0,80,0.00,,---,0.00,VWS V14.00,2013-06-07 05:17:00,
2013-06-07 01:18:00,57.8,51.7,29.86,ENE,71,5.0,6.0,80,0.00,,---,0.00,VWS V14.00,2013-06-07 05:18:00,
2013-06-07 01:19:00,57.7,51.6,29.86,ENE,71,3.0,6.0,80,0.00,,---,0.00,VWS V14.00,2013-06-07 05:19:00,
2013-06-07 01:20:00,57.7,51.6,29.86,ENE,71,3.0,6.0,80,0.00,,---,0.00,VWS V14.00,2013-06-07 05:20:00,
2013-06-07 01:22:00,57.6,51.1,29.86,ENE,71,2.0,6.0,79,0.00,,---,0.00,VWS V14.00,2013-06-07 05:22:00,
2013-06-07 01:23:00,57.6,51.1,29.86,ENE,71,3.0,6.0,79,0.00,,---,0.00,VWS V14.00,2013-06-07 05:23:00,
2013-06-07 01:25:00,57.5,51.0,29.86,ENE,72,4.0,6.0,79,0.00,,---,0.00,VWS V14.00,2013-06-07 05:25:00,
2013-06-07 01:28:00,57.4,51.3,29.86,ENE,74,2.0,6.0,80,0.00,,---,0.00,VWS V14.00,2013-06-07 05:28:00,
2013-06-07 01:29:00,57.4,51.3,29.86,ENE,74,3.0,4.0,80,0.00,,---,0.00,VWS V14.00,2013-06-07 05:29:00,
2013-06-07 01:30:00,57.4,51.3,29.86,ENE,75,3.0,4.0,80,0.00,,---,0.00,VWS V14.00,2013-06-07 05:30:00,
2013-06-07 01:33:00,57.3,51.2,29.86,ENE,75,3.0,4.0,80,0.00,,---,0.00,VWS V14.00,2013-06-07 05:33:00,
2013-06-07 01:34:00,57.3,51.2,29.86,ENE,75,3.0,5.0,80,0.00,,---,0.00,VWS V14.00,2013-06-07 05:34:00,
2013-06-07 01:35:00,57.2,51.1,29.86,ENE,75,3.0,5.0,80,0.00,,---,0.00,VWS V14.00,2013-06-07 05:35:00,
2013-06-07 01:36:00,57.2,51.1,29.86,ENE,75,2.0,5.0,80,0.00,,---,0.00,VWS V14.00,2013-06-07 05:36:00,
2013-06-07 01:39:00,57.1,51.0,29.86,ENE,75,2.0,5.0,80,0.00,,---,0.00,VWS V14.00,2013-06-07 05:39:00,
2013-06-07 01:41:00,57.0,50.9,29.85,ENE,75,2.0,5.0,80,0.00,,---,0.00,VWS V14.00,2013-06-07 05:41:00,
2013-06-07 01:42:00,57.0,50.9,29.85,ENE,75,3.0,5.0,80,0.00,,---,0.00,VWS V14.00,2013-06-07 05:42:00,
2013-06-07 01:43:00,57.0,50.9,29.85,ENE,75,3.0,5.0,80,0.00,,---,0.00,VWS V14.00,2013-06-07 05:43:00,
2013-06-07 01:44:00,57.0,50.9,29.86,ENE,75,3.0,5.0,80,0.00,,---,0.00,VWS V14.00,2013-06-07 05:44:00,
2013-06-07 01:45:00,56.9,50.8,29.86,ENE,75,2.0,5.0,80,0.00,,---,0.00,VWS V14.00,2013-06-07 05:45:00,
2013-06-07 01:47:00,56.9,50.8,29.86,ENE,75,3.0,5.0,80,0.00,,---,0.00,VWS V14.00,2013-06-07 05:47:00,
2013-06-07 01:49:00,56.9,50.8,29.86,ENE,75,3.0,5.0,80,0.00,,---,0.00,VWS V14.00,2013-06-07 05:49:00,
2013-06-07 01:50:00,56.9,50.8,29.86,ENE,75,3.0,5.0,80,0.00,,---,0.00,VWS V14.00,2013-06-07 05:50:00,
2013-06-07 01:51:00,56.9,50.8,29.86,ENE,75,2.0,5.0,80,0.00,,---,0.00,VWS V14.00,2013-06-07 05:51:00,
2013-06-07 01:52:00,56.9,50.8,29.86,ENE,75,3.0,5.0,80,0.00,,---,0.00,VWS V14.00,2013-06-07 05:52:00,
2013-06-07 01:53:00,56.9,50.8,29.86,ENE,75,1.0,5.0,80,0.00,,---,0.00,VWS V14.00,2013-06-07 05:53:00,
2013-06-07 01:55:00,56.9,50.8,29.86,ENE,75,1.0,5.0,80,0.00,,---,0.00,VWS V14.00,2013-06-07 05:55:00,
2013-06-07 01:56:00,56.9,50.8,29.86,ENE,75,1.0,5.0,80,0.00,,---,0.00,VWS V14.00,2013-06-07 05:56:00,
2013-06-07 01:58:00,56.9,50.8,29.86,ENE,75,2.0,5.0,80,0.00,,---,0.00,VWS V14.00,2013-06-07 05:58:00,
2013-06-07 01:59:00,56.8,50.7,29.86,ENE,75,2.0,3.0,80,0.00,,---,0.00,VWS V14.00,2013-06-07 05:59:00,
2013-06-07 02:00:00,56.8,50.7,29.86,ENE,75,2.0,3.0,80,0.00,,---,0.00,VWS V14.00,2013-06-07 06:00:00,
2013-06-07 02:04:00,56.8,50.7,29.86,ENE,75,2.0,3.0,80,0.00,,---,0.00,VWS V14.00,2013-06-07 06:04:00,
2013-06-07 02:05:00,56.8,50.7,29.86,ENE,75,2.0,3.0,80,0.00,,---,0.00,VWS V14.00,2013-06-07 06:05:00,
2013-06-07 02:09:00,56.9,51.1,29.86,ENE,75,2.0,4.0,81,0.00,,---,0.00,VWS V14.00,2013-06-07 06:09:00,
2013-06-07 02:10:00,56.8,50.7,29.86,ENE,75,1.0,4.0,80,0.00,,---,0.00,VWS V14.00,2013-06-07 06:10:00,
2013-06-07 02:12:00,56.9,51.1,29.86,ENE,75,3.0,4.0,81,0.00,,---,0.00,VWS V14.00,2013-06-07 06:12:00,
2013-06-07 02:14:00,56.8,51.0,29.86,ENE,75,3.0,4.0,81,0.00,,---,0.00,VWS V14.00,2013-06-07 06:14:00,
2013-06-07 02:15:00,56.8,50.7,29.85,ENE,75,3.0,4.0,80,0.00,,---,0.00,VWS V14.00,2013-06-07 06:15:00,
2013-06-07 02:16:00,56.8,50.7,29.86,ENE,75,2.0,4.0,80,0.00,,---,0.00,VWS V14.00,2013-06-07 06:16:00,
2013-06-07 02:20:00,56.8,50.7,29.86,ENE,75,1.0,4.0,80,0.00,,---,0.00,VWS V14.00,2013-06-07 06:20:00,
2013-06-07 02:21:00,56.7,50.6,29.86,ENE,75,0.0,4.0,80,0.00,,---,0.00,VWS V14.00,2013-06-07 06:21:00,
2013-06-07 02:22:00,56.7,50.6,29.86,ENE,75,1.0,4.0,80,0.00,,---,0.00,VWS V14.00,2013-06-07 06:22:00,
2013-06-07 02:26:00,56.4,50.7,29.86,ENE,75,0.0,4.0,81,0.00,,---,0.00,VWS V14.00,2013-06-07 06:26:00,
2013-06-07 02:27:00,56.3,50.5,29.86,ENE,75,0.0,4.0,81,0.00,,---,0.00,VWS V14.00,2013-06-07 06:27:00,
2013-06-07 02:28:00,56.3,50.5,29.86,ENE,75,0.0,4.0,81,0.00,,---,0.00,VWS V14.00,2013-06-07 06:28:00,
2013-06-07 02:30:00,56.1,50.4,29.86,ENE,75,0.0,0.0,81,0.00,,---,0.00,VWS V14.00,2013-06-07 06:30:00,
2013-06-07 02:32:00,56.0,50.3,29.86,ENE,75,0.0,0.0,81,0.00,,---,0.00,VWS V14.00,2013-06-07 06:32:00,
2013-06-07 02:33:00,55.9,50.2,29.86,ENE,75,0.0,0.0,81,0.00,,---,0.00,VWS V14.00,2013-06-07 06:33:00,
2013-06-07 02:34:00,55.9,50.2,29.86,ENE,75,0.0,0.0,81,0.00,,---,0.00,VWS V14.00,2013-06-07 06:34:00,
2013-06-07 02:37:00,55.7,50.3,29.86,ENE,75,0.0,0.0,82,0.00,,---,0.00,VWS V14.00,2013-06-07 06:37:00,
2013-06-07 02:38:00,55.6,50.2,29.86,ENE,75,0.0,0.0,82,0.00,,---,0.00,VWS V14.00,2013-06-07 06:38:00,
2013-06-07 02:39:00,55.6,50.2,29.86,ENE,75,0.0,0.0,82,0.00,,---,0.00,VWS V14.00,2013-06-07 06:39:00,
2013-06-07 02:42:00,55.4,50.0,29.86,ENE,75,0.0,0.0,82,0.00,,---,0.00,VWS V14.00,2013-06-07 06:42:00,
2013-06-07 02:44:00,55.3,50.2,29.86,ENE,75,0.0,0.0,83,0.00,,---,0.00,VWS V14.00,2013-06-07 06:44:00,
2013-06-07 02:45:00,55.3,50.2,29.86,ENE,75,0.0,0.0,83,0.00,,---,0.00,VWS V14.00,2013-06-07 06:45:00,
2013-06-07 02:46:00,55.3,50.2,29.86,ENE,75,0.0,0.0,83,0.00,,---,0.00,VWS V14.00,2013-06-07 06:46:00,
2013-06-07 02:48:00,55.2,50.1,29.86,ENE,75,0.0,0.0,83,0.00,,---,0.00,VWS V14.00,2013-06-07 06:48:00,
2013-06-07 02:49:00,55.2,50.1,29.86,ENE,75,0.0,0.0,83,0.00,,---,0.00,VWS V14.00,2013-06-07 06:49:00,
2013-06-07 02:50:00,55.2,50.1,29.86,ENE,75,0.0,0.0,83,0.00,,---,0.00,VWS V14.00,2013-06-07 06:50:00,
2013-06-07 02:51:00,55.1,50.0,29.86,ENE,75,0.0,0.0,83,0.00,,---,0.00,VWS V14.00,2013-06-07 06:51:00,
2013-06-07 02:53:00,55.1,50.0,29.86,ENE,75,0.0,0.0,83,0.00,,---,0.00,VWS V14.00,2013-06-07 06:53:00,
2013-06-07 02:54:00,55.1,50.0,29.86,ENE,75,0.0,0.0,83,0.00,,---,0.00,VWS V14.00,2013-06-07 06:54:00,
2013-06-07 02:55:00,55.0,49.9,29.86,ENE,75,0.0,0.0,83,0.00,,---,0.00,VWS V14.00,2013-06-07 06:55:00,
2013-06-07 02:57:00,55.1,50.4,29.86,ENE,75,0.0,0.0,84,0.00,,---,0.00,VWS V14.00,2013-06-07 06:57:00,
2013-06-07 02:59:00,55.0,50.3,29.86,ENE,75,0.0,0.0,84,0.00,,---,0.00,VWS V14.00,2013-06-07 06:59:00,
2013-06-07 03:00:00,54.9,50.2,29.86,ENE,75,0.0,0.0,84,0.00,,---,0.00,VWS V14.00,2013-06-07 07:00:00,
2013-06-07 03:02:00,54.8,50.1,29.86,ENE,75,0.0,0.0,84,0.00,,---,0.00,VWS V14.00,2013-06-07 07:02:00,
2013-06-07 03:07:00,54.5,49.8,29.86,ENE,75,0.0,0.0,84,0.00,,---,0.00,VWS V14.00,2013-06-07 07:07:00,
2013-06-07 03:08:00,54.4,50.0,29.86,ENE,75,0.0,0.0,85,0.00,,---,0.00,VWS V14.00,2013-06-07 07:08:00,
2013-06-07 03:09:00,54.4,50.0,29.86,ENE,75,0.0,0.0,85,0.00,,---,0.00,VWS V14.00,2013-06-07 07:09:00,
2013-06-07 03:12:00,54.2,49.8,29.86,ENE,75,0.0,0.0,85,0.00,,---,0.00,VWS V14.00,2013-06-07 07:12:00,
2013-06-07 03:13:00,54.1,49.7,29.85,ENE,75,0.0,0.0,85,0.00,,---,0.00,VWS V14.00,2013-06-07 07:13:00,
2013-06-07 03:15:00,54.1,49.7,29.85,ENE,75,0.0,0.0,85,0.00,,---,0.00,VWS V14.00,2013-06-07 07:15:00,
2013-06-07 03:16:00,54.0,49.6,29.85,ENE,75,0.0,0.0,85,0.00,,---,0.00,VWS V14.00,2013-06-07 07:16:00,
2013-06-07 03:17:00,53.9,49.8,29.86,ENE,75,0.0,0.0,86,0.00,,---,0.00,VWS V14.00,2013-06-07 07:17:00,
2013-06-07 03:18:00,53.9,49.8,29.86,ENE,75,0.0,0.0,86,0.00,,---,0.00,VWS V14.00,2013-06-07 07:18:00,
2013-06-07 03:20:00,53.8,49.7,29.86,ENE,75,0.0,0.0,86,0.00,,---,0.00,VWS V14.00,2013-06-07 07:20:00,
2013-06-07 03:23:00,53.6,49.5,29.85,ENE,75,0.0,0.0,86,0.00,,---,0.00,VWS V14.00,2013-06-07 07:23:00,
2013-06-07 03:24:00,53.6,49.5,29.85,ENE,75,0.0,0.0,86,0.00,,---,0.00,VWS V14.00,2013-06-07 07:24:00,
2013-06-07 03:25:00,53.5,49.4,29.85,ENE,75,0.0,0.0,86,0.00,,---,0.00,VWS V14.00,2013-06-07 07:25:00,
2013-06-07 03:29:00,53.4,49.6,29.85,ENE,75,0.0,0.0,87,0.00,,---,0.00,VWS V14.00,2013-06-07 07:29:00,
2013-06-07 03:30:00,53.3,49.5,29.86,ENE,75,0.0,0.0,87,0.00,,---,0.00,VWS V14.00,2013-06-07 07:30:00,
2013-06-07 03:31:00,53.3,49.5,29.85,ENE,75,0.0,0.0,87,0.00,,---,0.00,VWS V14.00,2013-06-07 07:31:00,
2013-06-07 03:32:00,53.3,49.5,29.86,ENE,75,0.0,0.0,87,0.00,,---,0.00,VWS V14.00,2013-06-07 07:32:00,
2013-06-07 03:35:00,53.2,49.4,29.85,ENE,75,0.0,0.0,87,0.00,,---,0.00,VWS V14.00,2013-06-07 07:35:00,
2013-06-07 03:37:00,53.1,49.3,29.85,ENE,75,0.0,0.0,87,0.00,,---,0.00,VWS V14.00,2013-06-07 07:37:00,
2013-06-07 03:38:00,53.1,49.7,29.85,ENE,75,0.0,0.0,88,0.00,,---,0.00,VWS V14.00,2013-06-07 07:38:00,
2013-06-07 03:42:00,53.1,49.7,29.85,ENE,75,0.0,0.0,88,0.00,,---,0.00,VWS V14.00,2013-06-07 07:42:00,
2013-06-07 03:43:00,53.1,49.7,29.85,ENE,75,0.0,0.0,88,0.00,,---,0.00,VWS V14.00,2013-06-07 07:43:00,
2013-06-07 03:46:00,53.1,49.7,29.85,ENE,75,0.0,0.0,88,0.00,,---,0.00,VWS V14.00,2013-06-07 07:46:00,
2013-06-07 03:49:00,53.1,49.7,29.85,ENE,75,0.0,0.0,88,0.00,,---,0.00,VWS V14.00,2013-06-07 07:49:00,
2013-06-07 03:50:00,53.2,49.7,29.85,ENE,75,3.0,3.0,88,0.00,,---,0.00,VWS V14.00,2013-06-07 07:50:00,
2013-06-07 03:52:00,53.3,50.2,29.85,ENE,75,2.0,4.0,89,0.00,,---,0.00,VWS V14.00,2013-06-07 07:52:00,
2013-06-07 03:54:00,53.4,50.2,29.85,ENE,75,3.0,4.0,89,0.00,,---,0.00,VWS V14.00,2013-06-07 07:54:00,
2013-06-07 03:55:00,53.4,50.2,29.85,ENE,75,2.0,4.0,89,0.00,,---,0.00,VWS V14.00,2013-06-07 07:55:00,
2013-06-07 03:58:00,53.5,50.0,29.85,ENE,75,3.0,4.0,88,0.00,,---,0.00,VWS V14.00,2013-06-07 07:58:00,
2013-06-07 04:01:00,53.8,50.6,29.85,ENE,75,3.0,5.0,89,0.00,,---,0.00,VWS V14.00,2013-06-07 08:01:00,
2013-06-07 04:04:00,54.0,50.5,29.85,ENE,75,2.0,5.0,88,0.00,,---,0.00,VWS V14.00,2013-06-07 08:04:00,
2013-06-07 04:05:00,54.1,50.6,29.85,ENE,75,2.0,5.0,88,0.00,,---,0.00,VWS V14.00,2013-06-07 08:05:00,
2013-06-07 04:06:00,54.1,50.6,29.85,ENE,75,0.0,5.0,88,0.00,,---,0.00,VWS V14.00,2013-06-07 08:06:00,
2013-06-07 04:07:00,54.1,50.6,29.85,ENE,75,0.0,5.0,88,0.00,,---,0.00,VWS V14.00,2013-06-07 08:07:00,
2013-06-07 04:09:00,54.1,50.6,29.84,ENE,75,0.0,5.0,88,0.00,,---,0.00,VWS V14.00,2013-06-07 08:09:00,
2013-06-07 04:11:00,54.0,50.5,29.85,ENE,75,0.0,5.0,88,0.00,,---,0.00,VWS V14.00,2013-06-07 08:11:00,
2013-06-07 04:14:00,53.9,50.1,29.85,ENE,75,0.0,5.0,87,0.00,,---,0.00,VWS V14.00,2013-06-07 08:14:00,
2013-06-07 04:15:00,53.8,50.0,29.85,ENE,75,0.0,5.0,87,0.00,,---,0.00,VWS V14.00,2013-06-07 08:15:00,
2013-06-07 04:16:00,53.7,49.9,29.85,ENE,75,0.0,5.0,87,0.00,,---,0.00,VWS V14.00,2013-06-07 08:16:00,
2013-06-07 04:17:00,53.7,49.9,29.85,ENE,75,0.0,5.0,87,0.00,,---,0.00,VWS V14.00,2013-06-07 08:17:00,
2013-06-07 04:21:00,53.4,49.6,29.85,ENE,75,0.0,5.0,87,0.00,,---,0.00,VWS V14.00,2013-06-07 08:21:00,
2013-06-07 04:22:00,53.3,49.5,29.85,ENE,75,0.0,5.0,87,0.00,,---,0.00,VWS V14.00,2013-06-07 08:22:00,
2013-06-07 04:23:00,53.2,49.4,29.84,ENE,75,0.0,5.0,87,0.00,,---,0.00,VWS V14.00,2013-06-07 08:23:00,
2013-06-07 04:24:00,53.2,49.4,29.85,ENE,75,0.0,5.0,87,0.00,,---,0.00,VWS V14.00,2013-06-07 08:24:00,
2013-06-07 04:27:00,53.0,49.5,29.84,ENE,75,0.0,5.0,88,0.00,,---,0.00,VWS V14.00,2013-06-07 08:27:00,
2013-06-07 04:28:00,53.0,49.5,29.84,ENE,75,0.0,5.0,88,0.00,,---,0.00,VWS V14.00,2013-06-07 08:28:00,
2013-06-07 04:30:00,52.9,49.5,29.85,ENE,75,0.0,0.0,88,0.00,,---,0.00,VWS V14.00,2013-06-07 08:30:00,
2013-06-07 04:31:00,52.8,49.3,29.84,ENE,75,0.0,0.0,88,0.00,,---,0.00,VWS V14.00,2013-06-07 08:31:00,
2013-06-07 04:34:00,52.7,49.2,29.85,ENE,75,0.0,0.0,88,0.00,,---,0.00,VWS V14.00,2013-06-07 08:34:00,
2013-06-07 04:36:00,52.6,49.2,29.85,ENE,75,0.0,0.0,88,0.00,,---,0.00,VWS V14.00,2013-06-07 08:36:00,
2013-06-07 04:37:00,52.6,49.2,29.85,ENE,75,0.0,0.0,88,0.00,,---,0.00,VWS V14.00,2013-06-07 08:37:00,
2013-06-07 04:39:00,52.5,49.0,29.85,ENE,75,0.0,0.0,88,0.00,,---,0.00,VWS V14.00,2013-06-07 08:39:00,
2013-06-07 04:40:00,52.5,49.0,29.85,ENE,75,0.0,0.0,88,0.00,,---,0.00,VWS V14.00,2013-06-07 08:40:00,
2013-06-07 04:41:00,52.4,49.0,29.85,ENE,75,0.0,0.0,88,0.00,,---,0.00,VWS V14.00,2013-06-07 08:41:00,
2013-06-07 04:42:00,52.4,49.0,29.85,ENE,75,0.0,0.0,88,0.00,,---,0.00,VWS V14.00,2013-06-07 08:42:00,
2013-06-07 04:43:00,52.4,49.0,29.85,ENE,75,0.0,0.0,88,0.00,,---,0.00,VWS V14.00,2013-06-07 08:43:00,
2013-06-07 04:45:00,52.5,49.4,29.85,ENE,75,0.0,2.0,89,0.00,,---,0.00,VWS V14.00,2013-06-07 08:45:00,
2013-06-07 04:47:00,52.6,50.3,29.85,ENE,75,2.0,4.0,92,0.00,,---,0.00,VWS V14.00,2013-06-07 08:47:00,
2013-06-07 04:48:00,52.6,49.5,29.85,ENE,75,0.0,4.0,89,0.00,,---,0.00,VWS V14.00,2013-06-07 08:48:00,
2013-06-07 04:49:00,52.6,49.5,29.85,ENE,75,0.0,4.0,89,0.00,,---,0.00,VWS V14.00,2013-06-07 08:49:00,
2013-06-07 04:52:00,52.7,49.5,29.85,ENE,75,0.0,4.0,89,0.00,,---,0.00,VWS V14.00,2013-06-07 08:52:00,
2013-06-07 04:53:00,52.7,49.5,29.85,ENE,75,0.0,4.0,89,0.00,,---,0.00,VWS V14.00,2013-06-07 08:53:00,
2013-06-07 04:54:00,52.7,49.5,29.85,ENE,75,3.0,4.0,89,0.00,,---,0.00,VWS V14.00,2013-06-07 08:54:00,
2013-06-07 04:55:00,52.7,49.5,29.85,ENE,75,1.0,4.0,89,0.00,,---,0.00,VWS V14.00,2013-06-07 08:55:00,
2013-06-07 04:58:00,52.7,49.5,29.85,ENE,75,3.0,4.0,89,0.00,,---,0.00,VWS V14.00,2013-06-07 08:58:00,
2013-06-07 04:59:00,52.7,49.5,29.85,ENE,76,3.0,4.0,89,0.00,,---,0.00,VWS V14.00,2013-06-07 08:59:00,
2013-06-07 05:00:00,52.7,49.5,29.85,ENE,76,2.0,4.0,89,0.00,,---,0.00,VWS V14.00,2013-06-07 09:00:00,
2013-06-07 05:01:00,52.7,49.5,29.85,ENE,76,3.0,4.0,89,0.00,,---,0.00,VWS V14.00,2013-06-07 09:01:00,
2013-06-07 05:04:00,52.7,49.5,29.85,ENE,75,0.0,4.0,89,0.00,,---,0.00,VWS V14.00,2013-06-07 09:04:00,
2013-06-07 05:05:00,52.7,49.5,29.85,ENE,76,0.0,4.0,89,0.00,,---,0.00,VWS V14.00,2013-06-07 09:05:00,
2013-06-07 05:06:00,52.7,49.5,29.85,ENE,76,0.0,4.0,89,0.00,,---,0.00,VWS V14.00,2013-06-07 09:06:00,
2013-06-07 05:09:00,52.6,49.5,29.85,ENE,76,0.0,4.0,89,0.00,,---,0.00,VWS V14.00,2013-06-07 09:09:00,
2013-06-07 05:10:00,52.5,49.4,29.85,ENE,76,0.0,4.0,89,0.00,,---,0.00,VWS V14.00,2013-06-07 09:10:00,
2013-06-07 05:11:00,52.4,49.3,29.85,ENE,76,0.0,4.0,89,0.00,,---,0.00,VWS V14.00,2013-06-07 09:11:00,
2013-06-07 05:14:00,52.3,49.2,29.85,ENE,76,0.0,4.0,89,0.00,,---,0.00,VWS V14.00,2013-06-07 09:14:00,
2013-06-07 05:15:00,52.3,49.2,29.85,ENE,76,0.0,4.0,89,0.00,,---,0.00,VWS V14.00,2013-06-07 09:15:00,
2013-06-07 05:17:00,52.2,49.1,29.85,ENE,75,0.0,4.0,89,0.00,,---,0.00,VWS V14.00,2013-06-07 09:17:00,
2013-06-07 05:19:00,52.1,49.3,29.86,ENE,75,0.0,4.0,90,0.00,,---,0.00,VWS V14.00,2013-06-07 09:19:00,
2013-06-07 05:22:00,52.0,49.2,29.86,ENE,76,0.0,4.0,90,0.00,,---,0.00,VWS V14.00,2013-06-07 09:22:00,
2013-06-07 05:23:00,52.0,48.9,29.86,ENE,76,0.0,4.0,89,0.00,,---,0.00,VWS V14.00,2013-06-07 09:23:00,
2013-06-07 05:24:00,51.9,48.8,29.86,ENE,76,0.0,4.0,89,0.00,,---,0.00,VWS V14.00,2013-06-07 09:24:00,
2013-06-07 05:27:00,51.8,48.7,29.86,ENE,76,0.0,4.0,89,0.00,,---,0.00,VWS V14.00,2013-06-07 09:27:00,
2013-06-07 05:28:00,51.7,48.6,29.86,ENE,76,0.0,4.0,89,0.00,,---,0.00,VWS V14.00,2013-06-07 09:28:00,
2013-06-07 05:29:00,51.7,48.9,29.86,ENE,76,0.0,0.0,90,0.00,,---,0.00,VWS V14.00,2013-06-07 09:29:00,
2013-06-07 05:31:00,51.7,48.9,29.86,ENE,76,0.0,0.0,90,0.00,,---,0.00,VWS V14.00,2013-06-07 09:31:00,
2013-06-07 05:32:00,51.7,48.9,29.86,ENE,76,0.0,0.0,90,0.00,,---,0.00,VWS V14.00,2013-06-07 09:32:00,
2013-06-07 05:33:00,51.7,48.9,29.86,ENE,76,0.0,0.0,90,0.00,,---,0.00,VWS V14.00,2013-06-07 09:33:00,
2013-06-07 05:35:00,51.7,48.9,29.86,ENE,76,0.0,0.0,90,0.00,,---,0.00,VWS V14.00,2013-06-07 09:35:00,
2013-06-07 05:37:00,51.7,48.9,29.86,ENE,76,0.0,0.0,90,0.00,,---,0.00,VWS V14.00,2013-06-07 09:37:00,
2013-06-07 05:40:00,51.6,48.8,29.86,ENE,75,0.0,0.0,90,0.00,,---,0.00,VWS V14.00,2013-06-07 09:40:00,
2013-06-07 05:42:00,51.6,48.8,29.86,ENE,76,0.0,0.0,90,0.00,,---,0.00,VWS V14.00,2013-06-07 09:42:00,
2013-06-07 05:44:00,51.6,48.8,29.87,ENE,76,0.0,0.0,90,0.00,,---,0.00,VWS V14.00,2013-06-07 09:44:00,
2013-06-07 05:45:00,51.6,48.8,29.87,ENE,75,0.0,0.0,90,0.00,,---,0.00,VWS V14.00,2013-06-07 09:45:00,
2013-06-07 05:46:00,51.6,48.8,29.87,ENE,76,0.0,0.0,90,0.00,,---,0.00,VWS V14.00,2013-06-07 09:46:00,
2013-06-07 05:49:00,51.5,48.7,29.87,ENE,75,0.0,0.0,90,0.00,,---,0.00,VWS V14.00,2013-06-07 09:49:00,
2013-06-07 05:50:00,51.5,48.7,29.87,ENE,76,0.0,0.0,90,0.00,,---,0.00,VWS V14.00,2013-06-07 09:50:00,
2013-06-07 05:51:00,51.4,48.6,29.87,ENE,75,0.0,0.0,90,0.00,,---,0.00,VWS V14.00,2013-06-07 09:51:00,
2013-06-07 05:52:00,51.4,48.6,29.87,ENE,76,0.0,0.0,90,0.00,,---,0.00,VWS V14.00,2013-06-07 09:52:00,
2013-06-07 05:54:00,51.4,48.9,29.87,ENE,76,0.0,0.0,91,0.00,,---,0.00,VWS V14.00,2013-06-07 09:54:00,
2013-06-07 05:55:00,51.4,48.9,29.87,ENE,75,0.0,0.0,91,0.00,,---,0.00,VWS V14.00,2013-06-07 09:55:00,
2013-06-07 05:58:00,51.3,48.8,29.87,ENE,75,0.0,0.0,91,0.00,,---,0.00,VWS V14.00,2013-06-07 09:58:00,
2013-06-07 06:01:00,51.2,48.7,29.87,ENE,75,0.0,0.0,91,0.00,,---,0.00,VWS V14.00,2013-06-07 10:01:00,
2013-06-07 06:03:00,51.2,48.7,29.87,ENE,75,0.0,0.0,91,0.00,,---,0.00,VWS V14.00,2013-06-07 10:03:00,
2013-06-07 06:04:00,51.2,48.7,29.87,ENE,75,0.0,0.0,91,0.00,,---,0.00,VWS V14.00,2013-06-07 10:04:00,
2013-06-07 06:06:00,51.2,48.7,29.87,ENE,76,0.0,0.0,91,0.00,,---,0.00,VWS V14.00,2013-06-07 10:06:00,
2013-06-07 06:07:00,51.1,48.6,29.87,ENE,76,0.0,0.0,91,0.00,,---,0.00,VWS V14.00,2013-06-07 10:07:00,
2013-06-07 06:08:00,51.1,48.6,29.87,ENE,76,0.0,0.0,91,0.00,,---,0.00,VWS V14.00,2013-06-07 10:08:00,
2013-06-07 06:10:00,51.0,48.5,29.87,ENE,76,0.0,0.0,91,0.00,,---,0.00,VWS V14.00,2013-06-07 10:10:00,
2013-06-07 06:11:00,50.9,48.4,29.88,ENE,76,0.0,0.0,91,0.00,,---,0.00,VWS V14.00,2013-06-07 10:11:00,
2013-06-07 06:13:00,50.9,48.4,29.87,ENE,76,0.0,0.0,91,0.00,,---,0.00,VWS V14.00,2013-06-07 10:13:00,
2013-06-07 06:14:00,50.8,48.3,29.88,ENE,76,0.0,0.0,91,0.00,,---,0.00,VWS V14.00,2013-06-07 10:14:00,
2013-06-07 06:17:00,50.8,48.3,29.88,ENE,76,0.0,0.0,91,0.00,,---,0.00,VWS V14.00,2013-06-07 10:17:00,
2013-06-07 06:18:00,50.7,48.2,29.88,ENE,76,0.0,0.0,91,0.00,,---,0.00,VWS V14.00,2013-06-07 10:18:00,
2013-06-07 06:19:00,50.7,48.2,29.88,ENE,76,0.0,0.0,91,0.00,,---,0.00,VWS V14.00,2013-06-07 10:19:00,
2013-06-07 06:21:00,50.7,48.2,29.88,ENE,76,0.0,0.0,91,0.00,,---,0.00,VWS V14.00,2013-06-07 10:21:00,
2013-06-07 06:22:00,50.7,48.2,29.88,ENE,76,0.0,0.0,91,0.00,,---,0.00,VWS V14.00,2013-06-07 10:22:00,
2013-06-07 06:23:00,50.7,48.2,29.88,ENE,75,0.0,0.0,91,0.00,,---,0.00,VWS V14.00,2013-06-07 10:23:00,
2013-06-07 06:24:00,50.7,48.2,29.88,ENE,76,0.0,0.0,91,0.00,,---,0.00,VWS V14.00,2013-06-07 10:24:00,
2013-06-07 06:25:00,50.7,48.2,29.88,ENE,76,0.0,0.0,91,0.00,,---,0.00,VWS V14.00,2013-06-07 10:25:00,
2013-06-07 06:28:00,50.7,48.5,29.88,ENE,76,0.0,0.0,92,0.00,,---,0.00,VWS V14.00,2013-06-07 10:28:00,
2013-06-07 06:30:00,50.8,48.6,29.88,ENE,76,0.0,0.0,92,0.00,,---,0.00,VWS V14.00,2013-06-07 10:30:00,
2013-06-07 06:31:00,50.7,48.5,29.88,ENE,76,0.0,0.0,92,0.00,,---,0.00,VWS V14.00,2013-06-07 10:31:00,
2013-06-07 06:33:00,50.7,48.5,29.88,ENE,75,0.0,0.0,92,0.00,,---,0.00,VWS V14.00,2013-06-07 10:33:00,
2013-06-07 06:34:00,50.7,48.5,29.88,ENE,75,0.0,0.0,92,0.00,,---,0.00,VWS V14.00,2013-06-07 10:34:00,
2013-06-07 06:35:00,50.6,48.4,29.88,ENE,76,0.0,0.0,92,0.00,,---,0.00,VWS V14.00,2013-06-07 10:35:00,
2013-06-07 06:36:00,50.6,48.4,29.88,ENE,75,0.0,0.0,92,0.00,,---,0.00,VWS V14.00,2013-06-07 10:36:00,
2013-06-07 06:38:00,50.7,48.5,29.88,ENE,76,0.0,0.0,92,0.00,,---,0.00,VWS V14.00,2013-06-07 10:38:00,
2013-06-07 06:39:00,50.7,48.5,29.88,ENE,75,0.0,0.0,92,0.00,,---,0.00,VWS V14.00,2013-06-07 10:39:00,
2013-06-07 06:42:00,50.8,48.6,29.88,ENE,75,0.0,0.0,92,0.00,,---,0.00,VWS V14.00,2013-06-07 10:42:00,
2013-06-07 06:44:00,50.9,48.7,29.88,ENE,75,0.0,0.0,92,0.00,,---,0.00,VWS V14.00,2013-06-07 10:44:00,
2013-06-07 06:45:00,51.0,48.8,29.88,ENE,76,0.0,0.0,92,0.00,,---,0.00,VWS V14.00,2013-06-07 10:45:00,
2013-06-07 06:48:00,51.2,49.0,29.88,ENE,76,0.0,0.0,92,0.00,,---,0.00,VWS V14.00,2013-06-07 10:48:00,
2013-06-07 06:49:00,51.3,49.1,29.88,ENE,76,0.0,0.0,92,0.00,,---,0.00,VWS V14.00,2013-06-07 10:49:00,
2013-06-07 06:50:00,51.4,49.5,29.88,ENE,76,0.0,0.0,93,0.00,,---,0.00,VWS V14.00,2013-06-07 10:50:00,
2013-06-07 06:53:00,51.5,49.3,29.88,ENE,75,0.0,0.0,92,0.00,,---,0.00,VWS V14.00,2013-06-07 10:53:00,
2013-06-07 06:54:00,51.5,49.3,29.88,ENE,75,0.0,0.0,92,0.00,,---,0.00,VWS V14.00,2013-06-07 10:54:00,
2013-06-07 06:55:00,51.5,49.3,29.88,ENE,76,0.0,0.0,92,0.00,,---,0.00,VWS V14.00,2013-06-07 10:55:00,
2013-06-07 06:56:00,51.6,49.4,29.89,ENE,76,0.0,0.0,92,0.00,,---,0.00,VWS V14.00,2013-06-07 10:56:00,
2013-06-07 06:58:00,51.9,49.9,29.88,ENE,76,0.0,0.0,93,0.00,,---,0.00,VWS V14.00,2013-06-07 10:58:00,
2013-06-07 07:00:00,52.0,50.0,29.89,ENE,76,0.0,0.0,93,0.00,,---,0.00,VWS V14.00,2013-06-07 11:00:00,
2013-06-07 07:01:00,52.2,50.2,29.89,ENE,75,0.0,0.0,93,0.00,,---,0.00,VWS V14.00,2013-06-07 11:01:00,
2013-06-07 07:02:00,52.4,50.4,29.89,ENE,75,1.0,3.0,93,0.00,,---,0.00,VWS V14.00,2013-06-07 11:02:00,
2013-06-07 07:05:00,52.8,50.8,29.89,ENE,74,2.0,4.0,93,0.00,,---,0.00,VWS V14.00,2013-06-07 11:05:00,
2013-06-07 07:06:00,52.8,50.8,29.89,ENE,74,4.0,4.0,93,0.00,,---,0.00,VWS V14.00,2013-06-07 11:06:00,
2013-06-07 07:07:00,52.9,50.9,29.89,ENE,73,2.0,4.0,93,0.00,,---,0.00,VWS V14.00,2013-06-07 11:07:00,
2013-06-07 07:08:00,52.9,50.9,29.89,ENE,73,0.0,4.0,93,0.00,,---,0.00,VWS V14.00,2013-06-07 11:08:00,
2013-06-07 07:10:00,53.1,51.1,29.89,ENE,70,2.0,5.0,93,0.00,,---,0.00,VWS V14.00,2013-06-07 11:10:00,
2013-06-07 07:12:00,53.3,51.3,29.89,ENE,69,3.0,5.0,93,0.00,,---,0.00,VWS V14.00,2013-06-07 11:12:00,
2013-06-07 07:13:00,53.5,51.2,29.89,ENE,68,2.0,5.0,92,0.00,,---,0.00,VWS V14.00,2013-06-07 11:13:00,
2013-06-07 07:14:00,53.5,51.2,29.89,ENE,66,2.0,5.0,92,0.00,,---,0.00,VWS V14.00,2013-06-07 11:14:00,
2013-06-07 07:15:00,53.5,51.2,29.89,ENE,65,4.0,5.0,92,0.00,,---,0.00,VWS V14.00,2013-06-07 11:15:00,
2013-06-07 07:17:00,53.7,51.4,29.89,ENE,65,3.0,5.0,92,0.00,,---,0.00,VWS V14.00,2013-06-07 11:17:00,
2013-06-07 07:18:00,53.9,51.6,29.89,ENE,65,0.0,5.0,92,0.00,,---,0.00,VWS V14.00,2013-06-07 11:18:00,
2013-06-07 07:19:00,54.0,51.7,29.89,ENE,65,0.0,5.0,92,0.00,,---,0.00,VWS V14.00,2013-06-07 11:19:00,
2013-06-07 07:20:00,54.2,51.9,29.89,ENE,64,3.0,5.0,92,0.00,,---,0.00,VWS V14.00,2013-06-07 11:20:00,
2013-06-07 07:21:00,54.3,52.0,29.89,ENE,64,4.0,5.0,92,0.00,,---,0.00,VWS V14.00,2013-06-07 11:21:00,
2013-06-07 07:24:00,54.5,52.2,29.88,ENE,64,5.0,5.0,92,0.00,,---,0.00,VWS V14.00,2013-06-07 11:24:00,
2013-06-07 07:25:00,54.6,52.3,29.88,ENE,61,5.0,5.0,92,0.00,,---,0.00,VWS V14.00,2013-06-07 11:25:00,
2013-06-07 07:26:00,54.6,52.3,29.88,NE,45,3.0,6.0,92,0.00,,---,0.00,VWS V14.00,2013-06-07 11:26:00,
2013-06-07 07:28:00,54.8,52.5,29.89,NE,45,3.0,3.0,92,0.00,,---,0.00,VWS V14.00,2013-06-07 11:28:00,
2013-06-07 07:29:00,54.9,52.6,29.89,NE,46,4.0,4.0,92,0.00,,---,0.00,VWS V14.00,2013-06-07 11:29:00,
2013-06-07 07:31:00,55.0,52.4,29.88,NE,45,2.0,5.0,91,0.00,,---,0.00,VWS V14.00,2013-06-07 11:31:00,
2013-06-07 07:32:00,55.0,52.4,29.88,NE,46,4.0,5.0,91,0.00,,---,0.00,VWS V14.00,2013-06-07 11:32:00,
2013-06-07 07:34:00,54.9,52.3,29.88,NE,51,4.0,5.0,91,0.00,,---,0.00,VWS V14.00,2013-06-07 11:34:00,
2013-06-07 07:35:00,55.0,52.4,29.88,NE,51,4.0,5.0,91,0.00,,---,0.00,VWS V14.00,2013-06-07 11:35:00,
2013-06-07 07:37:00,55.0,52.1,29.88,NE,51,1.0,5.0,90,0.00,,---,0.00,VWS V14.00,2013-06-07 11:37:00,
2013-06-07 07:39:00,55.1,52.2,29.88,ENE,61,4.0,6.0,90,0.00,,---,0.00,VWS V14.00,2013-06-07 11:39:00,
2013-06-07 07:40:00,55.1,52.2,29.89,ENE,59,4.0,6.0,90,0.00,,---,0.00,VWS V14.00,2013-06-07 11:40:00,
2013-06-07 07:41:00,55.1,52.2,29.88,ENE,60,2.0,6.0,90,0.00,,---,0.00,VWS V14.00,2013-06-07 11:41:00,
2013-06-07 07:43:00,55.3,52.4,29.88,ENE,60,4.0,6.0,90,0.00,,---,0.00,VWS V14.00,2013-06-07 11:43:00,
2013-06-07 07:46:00,55.4,52.2,29.88,ENE,61,3.0,6.0,89,0.00,,---,0.00,VWS V14.00,2013-06-07 11:46:00,
2013-06-07 07:47:00,55.5,52.6,29.88,ENE,61,3.0,6.0,90,0.00,,---,0.00,VWS V14.00,2013-06-07 11:47:00,
2013-06-07 07:49:00,55.5,52.3,29.88,ENE,61,2.0,6.0,89,0.00,,---,0.00,VWS V14.00,2013-06-07 11:49:00,
2013-06-07 07:50:00,55.6,52.4,29.88,ENE,63,5.0,6.0,89,0.00,,---,0.00,VWS V14.00,2013-06-07 11:50:00,
2013-06-07 07:52:00,55.7,52.2,29.88,ENE,63,3.0,6.0,88,0.00,,---,0.00,VWS V14.00,2013-06-07 11:52:00,
2013-06-07 07:53:00,55.7,52.2,29.89,ENE,62,5.0,6.0,88,0.00,,---,0.00,VWS V14.00,2013-06-07 11:53:00,
2013-06-07 07:54:00,55.7,52.2,29.89,ENE,73,4.0,7.0,88,0.00,,---,0.00,VWS V14.00,2013-06-07 11:54:00,
2013-06-07 07:55:00,55.7,52.2,29.88,ENE,73,3.0,7.0,88,0.00,,---,0.00,VWS V14.00,2013-06-07 11:55:00,
2013-06-07 07:57:00,55.9,52.4,29.88,ENE,73,3.0,7.0,88,0.00,,---,0.00,VWS V14.00,2013-06-07 11:57:00,
2013-06-07 07:59:00,56.0,52.5,29.89,ENE,70,7.0,7.0,88,0.00,,---,0.00,VWS V14.00,2013-06-07 11:59:00,
2013-06-07 08:01:00,56.1,52.3,29.89,ENE,76,5.0,7.0,87,0.00,,---,0.00,VWS V14.00,2013-06-07 12:01:00,
2013-06-07 08:02:00,56.1,52.3,29.89,ENE,76,5.0,7.0,87,0.00,,---,0.00,VWS V14.00,2013-06-07 12:02:00,
2013-06-07 08:03:00,56.2,52.4,29.88,ENE,76,3.0,7.0,87,0.00,,---,0.00,VWS V14.00,2013-06-07 12:03:00,
2013-06-07 08:04:00,56.2,52.4,29.88,ENE,71,4.0,7.0,87,0.00,,---,0.00,VWS V14.00,2013-06-07 12:04:00,
2013-06-07 08:07:00,56.2,52.1,29.88,ENE,75,6.0,11.0,86,0.00,,---,0.00,VWS V14.00,2013-06-07 12:07:00,
2013-06-07 08:08:00,56.1,52.0,29.88,East,95,5.0,11.0,86,0.00,,---,0.00,VWS V14.00,2013-06-07 12:08:00,
2013-06-07 08:09:00,56.0,51.9,29.88,East,87,4.0,11.0,86,0.00,,---,0.00,VWS V14.00,2013-06-07 12:09:00,
2013-06-07 08:10:00,56.0,51.9,29.88,ENE,75,7.0,11.0,86,0.00,,---,0.00,VWS V14.00,2013-06-07 12:10:00,
2013-06-07 08:12:00,55.8,51.7,29.88,East,86,7.0,11.0,86,0.00,,---,0.00,VWS V14.00,2013-06-07 12:12:00,
2013-06-07 08:14:00,55.8,51.7,29.88,East,80,5.0,11.0,86,0.00,,---,0.00,VWS V14.00,2013-06-07 12:14:00,
2013-06-07 08:15:00,55.8,51.7,29.88,East,80,10.0,11.0,86,0.00,,---,0.00,VWS V14.00,2013-06-07 12:15:00,
2013-06-07 08:16:00,55.8,51.7,29.88,East,86,6.0,11.0,86,0.00,,---,0.00,VWS V14.00,2013-06-07 12:16:00,
2013-06-07 08:18:00,55.8,51.4,29.88,East,89,7.0,11.0,85,0.00,,---,0.00,VWS V14.00,2013-06-07 12:18:00,
2013-06-07 08:19:00,55.7,51.3,29.88,ENE,76,6.0,11.0,85,0.00,,---,0.00,VWS V14.00,2013-06-07 12:19:00,
2013-06-07 08:20:00,55.6,51.2,29.88,East,79,5.0,11.0,85,0.00,,---,0.00,VWS V14.00,2013-06-07 12:20:00,
2013-06-07 08:21:00,55.6,51.2,29.88,ENE,71,7.0,11.0,85,0.00,,---,0.00,VWS V14.00,2013-06-07 12:21:00,
2013-06-07 08:23:00,55.5,51.1,29.88,ENE,74,3.0,11.0,85,0.00,,---,0.00,VWS V14.00,2013-06-07 12:23:00,
2013-06-07 08:24:00,55.5,51.1,29.88,ENE,70,5.0,11.0,85,0.00,,---,0.00,VWS V14.00,2013-06-07 12:24:00,
2013-06-07 08:25:00,55.5,51.1,29.88,ENE,63,6.0,11.0,85,0.00,,---,0.00,VWS V14.00,2013-06-07 12:25:00,
2013-06-07 08:27:00,55.3,50.9,29.89,ENE,63,10.0,12.0,85,0.00,,---,0.00,VWS V14.00,2013-06-07 12:27:00,
2013-06-07 08:28:00,55.2,50.8,29.89,ENE,69,9.0,12.0,85,0.00,,---,0.00,VWS V14.00,2013-06-07 12:28:00,
2013-06-07 08:29:00,55.1,50.7,29.89,ENE,71,11.0,11.0,85,0.00,,---,0.00,VWS V14.00,2013-06-07 12:29:00,
2013-06-07 08:31:00,55.1,51.0,29.89,East,92,9.0,11.0,86,0.00,,---,0.00,VWS V14.00,2013-06-07 12:31:00,
2013-06-07 08:32:00,55.0,50.6,29.89,ENE,67,9.0,11.0,85,0.00,,---,0.00,VWS V14.00,2013-06-07 12:32:00,
2013-06-07 08:33:00,55.0,50.6,29.89,ENE,73,5.0,11.0,85,0.00,,---,0.00,VWS V14.00,2013-06-07 12:33:00,
2013-06-07 08:37:00,55.0,50.9,29.89,East,87,10.0,13.0,86,0.00,,---,0.00,VWS V14.00,2013-06-07 12:37:00,
2013-06-07 08:38:00,54.9,50.8,29.89,East,84,6.0,13.0,86,0.00,,---,0.00,VWS V14.00,2013-06-07 12:38:00,
2013-06-07 08:42:00,54.8,50.7,29.89,East,92,5.0,13.0,86,0.00,,---,0.00,VWS V14.00,2013-06-07 12:42:00,
2013-06-07 08:43:00,54.8,50.7,29.89,East,94,4.0,13.0,86,0.00,,---,0.00,VWS V14.00,2013-06-07 12:43:00,
2013-06-07 08:44:00,54.9,50.8,29.89,East,84,7.0,13.0,86,0.00,,---,0.00,VWS V14.00,2013-06-07 12:44:00,
2013-06-07 08:45:00,54.9,50.8,29.89,ENE,73,7.0,13.0,86,0.00,,---,0.00,VWS V14.00,2013-06-07 12:45:00,
2013-06-07 08:47:00,54.9,50.8,29.89,East,99,5.0,13.0,86,0.00,,---,0.00,VWS V14.00,2013-06-07 12:47:00,
2013-06-07 08:48:00,55.0,50.9,29.89,East,98,4.0,13.0,86,0.00,,---,0.00,VWS V14.00,2013-06-07 12:48:00,
2013-06-07 08:50:00,55.1,51.0,29.89,East,94,1.0,13.0,86,0.00,,---,0.00,VWS V14.00,2013-06-07 12:50:00,
2013-06-07 08:51:00,55.1,51.0,29.89,East,94,2.0,13.0,86,0.00,,---,0.00,VWS V14.00,2013-06-07 12:51:00,
2013-06-07 08:52:00,55.4,51.3,29.89,ENE,69,9.0,13.0,86,0.00,,---,0.00,VWS V14.00,2013-06-07 12:52:00,
2013-06-07 08:53:00,55.4,51.6,29.89,ENE,67,5.0,13.0,87,0.00,,---,0.00,VWS V14.00,2013-06-07 12:53:00,
2013-06-07 08:56:00,55.5,51.4,29.89,East,98,6.0,13.0,86,0.00,,---,0.00,VWS V14.00,2013-06-07 12:56:00,
2013-06-07 08:58:00,55.5,51.1,29.89,East,90,5.0,13.0,85,0.00,,---,0.00,VWS V14.00,2013-06-07 12:58:00,
2013-06-07 09:01:00,55.5,51.1,29.89,East,80,4.0,10.0,85,0.00,,---,0.00,VWS V14.00,2013-06-07 13:01:00,
2013-06-07 09:02:00,55.5,51.1,29.89,East,79,4.0,10.0,85,0.00,,---,0.00,VWS V14.00,2013-06-07 13:02:00,
2013-06-07 09:03:00,55.6,51.2,29.89,East,84,9.0,10.0,85,0.00,,---,0.00,VWS V14.00,2013-06-07 13:03:00,
2013-06-07 09:07:00,55.7,51.3,29.90,ENE,76,10.0,10.0,85,0.00,,---,0.00,VWS V14.00,2013-06-07 13:07:00,
2013-06-07 09:08:00,55.6,51.2,29.90,NE,53,4.0,11.0,85,0.00,,---,0.00,VWS V14.00,2013-06-07 13:08:00,
2013-06-07 09:09:00,55.6,50.8,29.90,ENE,69,6.0,12.0,84,0.00,,---,0.00,VWS V14.00,2013-06-07 13:09:00,
2013-06-07 09:10:00,55.6,50.8,29.90,ENE,71,6.0,12.0,84,0.00,,---,0.00,VWS V14.00,2013-06-07 13:10:00,
2013-06-07 09:12:00,55.6,50.8,29.90,East,96,6.0,12.0,84,0.00,,---,0.00,VWS V14.00,2013-06-07 13:12:00,
2013-06-07 09:14:00,55.7,51.0,29.90,East,93,6.0,12.0,84,0.00,,---,0.00,VWS V14.00,2013-06-07 13:14:00,
2013-06-07 09:15:00,55.7,51.0,29.90,East,92,0.0,12.0,84,0.00,,---,0.00,VWS V14.00,2013-06-07 13:15:00,
2013-06-07 09:16:00,55.8,51.0,29.90,East,91,0.0,12.0,84,0.00,,---,0.00,VWS V14.00,2013-06-07 13:16:00,
2013-06-07 09:17:00,55.9,51.5,29.90,East,90,0.0,12.0,85,0.00,,---,0.00,VWS V14.00,2013-06-07 13:17:00,
2013-06-07 09:19:00,56.0,51.2,29.90,ENE,74,4.0,12.0,84,0.00,,---,0.00,VWS V14.00,2013-06-07 13:19:00,
2013-06-07 09:20:00,56.0,51.2,29.90,East,96,6.0,12.0,84,0.00,,---,0.00,VWS V14.00,2013-06-07 13:20:00,
2013-06-07 09:22:00,56.1,51.3,29.90,ENE,61,6.0,12.0,84,0.00,,---,0.00,VWS V14.00,2013-06-07 13:22:00,
2013-06-07 09:24:00,56.2,51.8,29.90,ENE,59,7.0,12.0,85,0.00,,---,0.00,VWS V14.00,2013-06-07 13:24:00,
2013-06-07 09:25:00,56.3,51.9,29.90,ENE,75,5.0,12.0,85,0.00,,---,0.00,VWS V14.00,2013-06-07 13:25:00,
2013-06-07 09:26:00,56.3,51.9,29.90,NE,44,4.0,12.0,85,0.00,,---,0.00,VWS V14.00,2013-06-07 13:26:00,
2013-06-07 09:29:00,56.3,51.5,29.90,East,79,5.0,6.0,84,0.00,,---,0.00,VWS V14.00,2013-06-07 13:29:00,
2013-06-07 09:30:00,56.3,51.5,29.90,ENE,78,6.0,7.0,84,0.00,,---,0.00,VWS V14.00,2013-06-07 13:30:00,
2013-06-07 09:31:00,56.3,51.5,29.90,ENE,76,6.0,7.0,84,0.00,,---,0.00,VWS V14.00,2013-06-07 13:31:00,
2013-06-07 09:34:00,56.3,51.5,29.90,ENE,69,6.0,11.0,84,0.00,,---,0.00,VWS V14.00,2013-06-07 13:34:00,
2013-06-07 09:36:00,56.4,51.6,29.90,East,80,3.0,11.0,84,0.00,,---,0.00,VWS V14.00,2013-06-07 13:36:00,
2013-06-07 09:37:00,56.4,51.6,29.90,ENE,67,11.0,12.0,84,0.00,,---,0.00,VWS V14.00,2013-06-07 13:37:00,
2013-06-07 09:38:00,56.3,51.5,29.90,East,82,6.0,12.0,84,0.00,,---,0.00,VWS V14.00,2013-06-07 13:38:00,
2013-06-07 09:39:00,56.3,51.2,29.90,ENE,67,6.0,12.0,83,0.00,,---,0.00,VWS V14.00,2013-06-07 13:39:00,
2013-06-07 09:40:00,56.4,51.3,29.90,East,80,5.0,12.0,83,0.00,,---,0.00,VWS V14.00,2013-06-07 13:40:00,
2013-06-07 09:42:00,56.4,51.3,29.91,East,81,6.0,12.0,83,0.00,,---,0.00,VWS V14.00,2013-06-07 13:42:00,
2013-06-07 09:43:00,56.4,51.3,29.91,East,81,5.0,12.0,83,0.00,,---,0.00,VWS V14.00,2013-06-07 13:43:00,
2013-06-07 09:45:00,56.4,51.3,29.91,East,84,4.0,12.0,83,0.00,,---,0.00,VWS V14.00,2013-06-07 13:45:00,
2013-06-07 09:49:00,56.5,51.4,29.91,East,80,4.0,12.0,83,0.00,,---,0.00,VWS V14.00,2013-06-07 13:49:00,
2013-06-07 09:51:00,56.5,51.4,29.91,East,83,6.0,12.0,83,0.00,,---,0.00,VWS V14.00,2013-06-07 13:51:00,
2013-06-07 09:53:00,56.5,51.4,29.91,East,87,4.0,12.0,83,0.00,,---,0.00,VWS V14.00,2013-06-07 13:53:00,
2013-06-07 09:55:00,56.6,51.2,29.91,East,82,6.0,12.0,82,0.00,,---,0.00,VWS V14.00,2013-06-07 13:55:00,
2013-06-07 09:56:00,56.5,51.1,29.90,ENE,76,4.0,12.0,82,0.00,,---,0.00,VWS V14.00,2013-06-07 13:56:00,
2013-06-07 09:57:00,56.5,51.1,29.90,ENE,76,2.0,12.0,82,0.00,,---,0.00,VWS V14.00,2013-06-07 13:57:00,
2013-06-07 09:59:00,56.6,51.5,29.90,East,80,3.0,5.0,83,0.00,,---,0.00,VWS V14.00,2013-06-07 13:59:00,
2013-06-07 10:01:00,56.7,51.3,29.90,East,83,5.0,7.0,82,0.00,,---,0.00,VWS V14.00,2013-06-07 14:01:00,
2013-06-07 10:02:00,56.7,51.3,29.90,East,83,5.0,7.0,82,0.00,,---,0.00,VWS V14.00,2013-06-07 14:02:00,
2013-06-07 10:03:00,56.8,51.4,29.90,East,82,6.0,7.0,82,0.00,,---,0.00,VWS V14.00,2013-06-07 14:03:00,
2013-06-07 10:05:00,56.9,51.5,29.90,East,86,5.0,7.0,82,0.00,,---,0.00,VWS V14.00,2013-06-07 14:05:00,
2013-06-07 10:06:00,56.9,51.5,29.90,East,94,3.0,7.0,82,0.00,,---,0.00,VWS V14.00,2013-06-07 14:06:00,
2013-06-07 10:07:00,56.9,51.5,29.90,East,80,4.0,7.0,82,0.00,,---,0.00,VWS V14.00,2013-06-07 14:07:00,
2013-06-07 10:08:00,56.9,51.5,29.90,ENE,78,5.0,7.0,82,0.00,,---,0.00,VWS V14.00,2013-06-07 14:08:00,
2013-06-07 10:10:00,56.8,51.4,29.90,East,81,2.0,7.0,82,0.00,,---,0.00,VWS V14.00,2013-06-07 14:10:00,
2013-06-07 10:13:00,57.0,51.6,29.90,ENE,75,5.0,8.0,82,0.00,,---,0.00,VWS V14.00,2013-06-07 14:13:00,
2013-06-07 10:14:00,57.0,51.6,29.90,East,86,6.0,8.0,82,0.00,,---,0.00,VWS V14.00,2013-06-07 14:14:00,
2013-06-07 10:15:00,57.0,51.6,29.90,East,87,5.0,9.0,82,0.00,,---,0.00,VWS V14.00,2013-06-07 14:15:00,
2013-06-07 10:18:00,57.1,51.7,29.90,ENE,77,2.0,9.0,82,0.00,,---,0.00,VWS V14.00,2013-06-07 14:18:00,
2013-06-07 10:19:00,57.1,51.7,29.90,ENE,76,2.0,9.0,82,0.00,,---,0.00,VWS V14.00,2013-06-07 14:19:00,
2013-06-07 10:20:00,57.3,51.9,29.90,ENE,78,6.0,9.0,82,0.00,,---,0.00,VWS V14.00,2013-06-07 14:20:00,
2013-06-07 10:21:00,57.3,51.9,29.90,ENE,78,5.0,9.0,82,0.00,,---,0.00,VWS V14.00,2013-06-07 14:21:00,
2013-06-07 10:23:00,57.3,51.9,29.90,ENE,75,3.0,9.0,82,0.00,,---,0.00,VWS V14.00,2013-06-07 14:23:00,
2013-06-07 10:24:00,57.4,52.0,29.90,ENE,62,4.0,9.0,82,0.00,,---,0.00,VWS V14.00,2013-06-07 14:24:00,
2013-06-07 10:26:00,57.5,52.1,29.91,ENE,59,4.0,9.0,82,0.00,,---,0.00,VWS V14.00,2013-06-07 14:26:00,
2013-06-07 10:27:00,57.6,52.2,29.90,ENE,68,6.0,9.0,82,0.00,,---,0.00,VWS V14.00,2013-06-07 14:27:00,
2013-06-07 10:28:00,57.6,52.2,29.90,ENE,69,4.0,9.0,82,0.00,,---,0.00,VWS V14.00,2013-06-07 14:28:00,
2013-06-07 10:30:00,57.6,51.8,29.90,ENE,71,4.0,6.0,81,0.00,,---,0.00,VWS V14.00,2013-06-07 14:30:00,
2013-06-07 10:32:00,57.4,51.6,29.90,ENE,71,5.0,6.0,81,0.00,,---,0.00,VWS V14.00,2013-06-07 14:32:00,
2013-06-07 10:34:00,57.3,51.5,29.90,ENE,71,3.0,6.0,81,0.00,,---,0.00,VWS V14.00,2013-06-07 14:34:00,
2013-06-07 10:35:00,57.3,51.9,29.90,ENE,71,3.0,6.0,82,0.00,,---,0.00,VWS V14.00,2013-06-07 14:35:00,
2013-06-07 10:38:00,57.5,52.1,29.90,NE,42,6.0,7.0,82,0.00,,---,0.00,VWS V14.00,2013-06-07 14:38:00,
2013-06-07 10:40:00,57.7,52.2,29.90,ENE,58,6.0,11.0,82,0.00,,---,0.00,VWS V14.00,2013-06-07 14:40:00,
2013-06-07 10:41:00,57.7,52.2,29.90,ENE,63,3.0,11.0,82,0.00,,---,0.00,VWS V14.00,2013-06-07 14:41:00,
2013-06-07 10:43:00,57.9,52.5,29.90,NNE,28,7.0,11.0,82,0.00,,---,0.00,VWS V14.00,2013-06-07 14:43:00,
2013-06-07 10:45:00,58.0,52.2,29.90,NE,56,4.0,11.0,81,0.00,,---,0.00,VWS V14.00,2013-06-07 14:45:00,
2013-06-07 10:46:00,58.0,52.2,29.91,ENE,68,3.0,11.0,81,0.00,,---,0.00,VWS V14.00,2013-06-07 14:46:00,
2013-06-07 10:49:00,57.9,51.8,29.90,ENE,72,4.0,11.0,80,0.00,,---,0.00,VWS V14.00,2013-06-07 14:49:00,
2013-06-07 10:50:00,57.9,51.8,29.90,ENE,73,5.0,11.0,80,0.00,,---,0.00,VWS V14.00,2013-06-07 14:50:00,
2013-06-07 10:51:00,57.9,51.8,29.90,ENE,67,5.0,11.0,80,0.00,,---,0.00,VWS V14.00,2013-06-07 14:51:00,
2013-06-07 10:52:00,57.9,51.8,29.90,ENE,68,4.0,11.0,80,0.00,,---,0.00,VWS V14.00,2013-06-07 14:52:00,
2013-06-07 10:55:00,57.8,51.7,29.90,ENE,71,2.0,11.0,80,0.00,,---,0.00,VWS V14.00,2013-06-07 14:55:00,
2013-06-07 10:57:00,57.7,51.6,29.90,ENE,71,3.0,11.0,80,0.00,,---,0.00,VWS V14.00,2013-06-07 14:57:00,
2013-06-07 10:58:00,57.7,51.6,29.90,ENE,71,0.0,11.0,80,0.00,,---,0.00,VWS V14.00,2013-06-07 14:58:00,
2013-06-07 10:59:00,57.7,51.6,29.90,ENE,71,2.0,4.0,80,0.00,,---,0.00,VWS V14.00,2013-06-07 14:59:00,
2013-06-07 11:00:00,57.8,51.7,29.90,ENE,71,2.0,6.0,80,0.00,,---,0.00,VWS V14.00,2013-06-07 15:00:00,
2013-06-07 11:04:00,58.0,51.9,29.90,ENE,75,3.0,6.0,80,0.00,,---,0.00,VWS V14.00,2013-06-07 15:04:00,
2013-06-07 11:05:00,58.1,52.0,29.90,ENE,75,3.0,6.0,80,0.00,,---,0.00,VWS V14.00,2013-06-07 15:05:00,
2013-06-07 11:07:00,58.4,52.6,29.90,NNE,24,7.0,8.0,81,0.00,,---,0.00,VWS V14.00,2013-06-07 15:07:00,
2013-06-07 11:09:00,58.5,52.7,29.90,NNE,22,2.0,9.0,81,0.00,,---,0.00,VWS V14.00,2013-06-07 15:09:00,
2013-06-07 11:10:00,58.5,52.4,29.90,NNE,17,3.0,9.0,80,0.00,,---,0.00,VWS V14.00,2013-06-07 15:10:00,
2013-06-07 11:11:00,58.5,52.4,29.90,NNE,18,3.0,9.0,80,0.00,,---,0.00,VWS V14.00,2013-06-07 15:11:00,
2013-06-07 11:12:00,58.6,52.5,29.90,NNE,30,6.0,9.0,80,0.00,,---,0.00,VWS V14.00,2013-06-07 15:12:00,
2013-06-07 11:13:00,58.7,52.6,29.90,ENE,57,3.0,9.0,80,0.00,,---,0.00,VWS V14.00,2013-06-07 15:13:00,
2013-06-07 11:15:00,58.9,52.8,29.90,ENE,62,6.0,10.0,80,0.00,,---,0.00,VWS V14.00,2013-06-07 15:15:00,
2013-06-07 11:16:00,59.0,52.8,29.90,NE,55,3.0,10.0,80,0.00,,---,0.00,VWS V14.00,2013-06-07 15:16:00,
2013-06-07 11:17:00,59.0,52.8,29.90,NE,55,4.0,10.0,80,0.00,,---,0.00,VWS V14.00,2013-06-07 15:17:00,
2013-06-07 11:19:00,59.0,53.2,29.90,NNE,30,5.0,10.0,81,0.00,,---,0.00,VWS V14.00,2013-06-07 15:19:00,
2013-06-07 11:22:00,59.5,53.0,29.90,ENE,66,4.0,10.0,79,0.00,,---,0.00,VWS V14.00,2013-06-07 15:22:00,
2013-06-07 11:23:00,59.4,52.5,29.90,ENE,66,3.0,10.0,78,0.00,,---,0.00,VWS V14.00,2013-06-07 15:23:00,
2013-06-07 11:24:00,59.4,52.9,29.90,NE,49,3.0,10.0,79,0.00,,---,0.00,VWS V14.00,2013-06-07 15:24:00,
2013-06-07 11:25:00,59.5,53.0,29.90,NE,41,2.0,10.0,79,0.00,,---,0.00,VWS V14.00,2013-06-07 15:25:00,
2013-06-07 11:28:00,60.0,53.1,29.90,North,9,3.0,10.0,78,0.00,,---,0.00,VWS V14.00,2013-06-07 15:28:00,
2013-06-07 11:29:00,60.2,53.3,29.90,NNE,28,5.0,5.0,78,0.00,,---,0.00,VWS V14.00,2013-06-07 15:29:00,
2013-06-07 11:30:00,60.4,53.2,29.90,NE,34,2.0,6.0,77,0.00,,---,0.00,VWS V14.00,2013-06-07 15:30:00,
2013-06-07 11:31:00,60.8,53.5,29.90,ENE,76,4.0,6.0,77,0.00,,---,0.00,VWS V14.00,2013-06-07 15:31:00,
2013-06-07 11:35:00,61.4,53.0,29.90,ENE,60,7.0,12.0,74,0.00,,---,0.00,VWS V14.00,2013-06-07 15:35:00,
2013-06-07 11:36:00,61.5,53.2,29.90,NE,54,12.0,12.0,74,0.00,,---,0.00,VWS V14.00,2013-06-07 15:36:00,
2013-06-07 11:37:00,61.6,53.2,29.89,ENE,76,4.0,12.0,74,0.00,,---,0.00,VWS V14.00,2013-06-07 15:37:00,
2013-06-07 11:38:00,61.6,53.2,29.89,ENE,66,5.0,12.0,74,0.00,,---,0.00,VWS V14.00,2013-06-07 15:38:00,
2013-06-07 11:41:00,61.5,53.2,29.89,ENE,76,7.0,12.0,74,0.00,,---,0.00,VWS V14.00,2013-06-07 15:41:00,
2013-06-07 11:42:00,61.5,53.2,29.89,ENE,60,5.0,12.0,74,0.00,,---,0.00,VWS V14.00,2013-06-07 15:42:00,
2013-06-07 11:43:00,61.6,53.2,29.89,ENE,70,3.0,12.0,74,0.00,,---,0.00,VWS V14.00,2013-06-07 15:43:00,
2013-06-07 11:44:00,61.8,53.4,29.89,East,84,6.0,12.0,74,0.00,,---,0.00,VWS V14.00,2013-06-07 15:44:00,
2013-06-07 11:45:00,61.9,53.5,29.89,East,87,4.0,12.0,74,0.00,,---,0.00,VWS V14.00,2013-06-07 15:45:00,
2013-06-07 11:47:00,62.0,53.3,29.89,NE,45,10.0,12.0,73,0.00,,---,0.00,VWS V14.00,2013-06-07 15:47:00,
2013-06-07 11:49:00,62.0,53.6,29.89,ENE,59,3.0,12.0,74,0.00,,---,0.00,VWS V14.00,2013-06-07 15:49:00,
2013-06-07 11:50:00,62.1,53.7,29.89,ENE,61,4.0,12.0,74,0.00,,---,0.00,VWS V14.00,2013-06-07 15:50:00,
2013-06-07 11:53:00,62.0,53.6,29.89,NNE,22,10.0,13.0,74,0.00,,---,0.00,VWS V14.00,2013-06-07 15:53:00,
2013-06-07 11:55:00,61.8,53.4,29.89,NNE,23,7.0,13.0,74,0.00,,---,0.00,VWS V14.00,2013-06-07 15:55:00,
2013-06-07 11:56:00,61.7,53.3,29.89,NE,49,10.0,13.0,74,0.00,,---,0.00,VWS V14.00,2013-06-07 15:56:00,
2013-06-07 11:58:00,61.7,53.7,29.89,NE,38,9.0,13.0,75,0.00,,---,0.00,VWS V14.00,2013-06-07 15:58:00,
2013-06-07 12:00:00,61.9,53.9,29.89,NE,44,9.0,12.0,75,0.00,,---,0.00,VWS V14.00,2013-06-07 16:00:00,
2013-06-07 12:01:00,61.9,53.9,29.89,ENE,60,7.0,12.0,75,0.00,,---,0.00,VWS V14.00,2013-06-07 16:01:00,
2013-06-07 12:03:00,62.1,54.1,29.89,NE,44,4.0,12.0,75,0.00,,---,0.00,VWS V14.00,2013-06-07 16:03:00,
2013-06-07 12:04:00,62.2,54.2,29.89,NE,54,4.0,12.0,75,0.00,,---,0.00,VWS V14.00,2013-06-07 16:04:00,
2013-06-07 12:08:00,62.5,53.7,29.88,ENE,71,6.0,13.0,73,0.00,,---,0.00,VWS V14.00,2013-06-07 16:08:00,
2013-06-07 12:09:00,62.4,53.3,29.89,ENE,65,10.0,13.0,72,0.00,,---,0.00,VWS V14.00,2013-06-07 16:09:00,
2013-06-07 12:10:00,62.3,53.2,29.88,NE,42,5.0,13.0,72,0.00,,---,0.00,VWS V14.00,2013-06-07 16:10:00,
2013-06-07 12:12:00,62.3,53.5,29.88,ENE,72,9.0,13.0,73,0.00,,---,0.00,VWS V14.00,2013-06-07 16:12:00,
2013-06-07 12:13:00,62.5,54.1,29.89,ENE,71,6.0,13.0,74,0.00,,---,0.00,VWS V14.00,2013-06-07 16:13:00,
2013-06-07 12:14:00,62.6,54.2,29.89,NE,52,7.0,13.0,74,0.00,,---,0.00,VWS V14.00,2013-06-07 16:14:00,
2013-06-07 12:15:00,62.7,53.5,29.89,ENE,74,9.0,13.0,72,0.00,,---,0.00,VWS V14.00,2013-06-07 16:15:00,
2013-06-07 12:18:00,62.8,53.3,29.88,NE,45,7.0,13.0,71,0.00,,---,0.00,VWS V14.00,2013-06-07 16:18:00,
2013-06-07 12:19:00,62.9,53.4,29.88,ENE,72,6.0,13.0,71,0.00,,---,0.00,VWS V14.00,2013-06-07 16:19:00,
2013-06-07 12:20:00,63.0,53.5,29.88,ENE,65,5.0,13.0,71,0.00,,---,0.00,VWS V14.00,2013-06-07 16:20:00,
2013-06-07 12:23:00,63.6,54.4,29.88,ENE,74,6.0,13.0,72,0.00,,---,0.00,VWS V14.00,2013-06-07 16:23:00,
2013-06-07 12:24:00,63.9,53.9,29.88,East,90,6.0,13.0,70,0.00,,---,0.00,VWS V14.00,2013-06-07 16:24:00,
2013-06-07 12:25:00,63.9,53.5,29.88,East,84,3.0,13.0,69,0.00,,---,0.00,VWS V14.00,2013-06-07 16:25:00,
2013-06-07 12:26:00,63.9,53.5,29.87,East,84,8.0,13.0,69,0.00,,---,0.00,VWS V14.00,2013-06-07 16:26:00,
2013-06-07 12:29:00,64.1,53.3,29.88,ENE,63,4.0,4.0,68,0.00,,---,0.00,VWS V14.00,2013-06-07 16:29:00,
2013-06-07 12:30:00,64.3,53.9,29.88,ESE,109,4.0,10.0,69,0.00,,---,0.00,VWS V14.00,2013-06-07 16:30:00,
2013-06-07 12:32:00,64.5,53.7,29.87,ESE,123,10.0,10.0,68,0.00,,---,0.00,VWS V14.00,2013-06-07 16:32:00,
2013-06-07 12:35:00,65.0,53.8,29.88,East,79,10.0,12.0,67,0.00,,---,0.00,VWS V14.00,2013-06-07 16:35:00,
2013-06-07 12:36:00,65.1,53.9,29.88,ENE,69,5.0,12.0,67,0.00,,---,0.00,VWS V14.00,2013-06-07 16:36:00,
2013-06-07 12:37:00,65.2,54.0,29.87,ENE,78,3.0,12.0,67,0.00,,---,0.00,VWS V14.00,2013-06-07 16:37:00,
2013-06-07 12:38:00,65.2,54.4,29.87,NE,38,7.0,12.0,68,0.00,,---,0.00,VWS V14.00,2013-06-07 16:38:00,
2013-06-07 12:41:00,65.3,54.1,29.87,ENE,76,5.0,12.0,67,0.00,,---,0.00,VWS V14.00,2013-06-07 16:41:00,
2013-06-07 12:42:00,65.3,54.1,29.87,ENE,66,6.0,12.0,67,0.00,,---,0.00,VWS V14.00,2013-06-07 16:42:00,
2013-06-07 12:44:00,65.6,55.2,29.87,NE,41,7.0,12.0,69,0.00,,---,0.00,VWS V14.00,2013-06-07 16:44:00,
2013-06-07 12:45:00,65.4,54.2,29.87,ENE,67,5.0,12.0,67,0.00,,---,0.00,VWS V14.00,2013-06-07 16:45:00,
2013-06-07 12:47:00,65.5,54.3,29.87,ENE,73,8.0,12.0,67,0.00,,---,0.00,VWS V14.00,2013-06-07 16:47:00,
2013-06-07 12:48:00,65.5,53.8,29.87,East,92,5.0,12.0,66,0.00,,---,0.00,VWS V14.00,2013-06-07 16:48:00,
2013-06-07 12:50:00,65.6,54.4,29.87,ENE,68,11.0,12.0,67,0.00,,---,0.00,VWS V14.00,2013-06-07 16:50:00,
2013-06-07 12:51:00,65.6,54.0,29.87,ENE,68,13.0,13.0,66,0.00,,---,0.00,VWS V14.00,2013-06-07 16:51:00,
2013-06-07 12:53:00,65.6,54.0,29.87,ENE,68,6.0,15.0,66,0.00,,---,0.00,VWS V14.00,2013-06-07 16:53:00,
2013-06-07 12:54:00,65.6,54.0,29.87,NNE,23,6.0,15.0,66,0.00,,---,0.00,VWS V14.00,2013-06-07 16:54:00,
2013-06-07 12:56:00,65.9,54.7,29.87,East,87,10.0,15.0,67,0.00,,---,0.00,VWS V14.00,2013-06-07 16:56:00,
2013-06-07 12:58:00,65.9,53.4,29.87,East,90,4.0,15.0,64,0.00,,---,0.00,VWS V14.00,2013-06-07 16:58:00,
2013-06-07 12:59:00,65.8,53.3,29.87,East,87,7.0,7.0,64,0.00,,---,0.00,VWS V14.00,2013-06-07 16:59:00,
2013-06-07 13:00:00,65.7,53.2,29.87,East,80,2.0,9.0,64,0.00,,---,0.00,VWS V14.00,2013-06-07 17:00:00,
2013-06-07 13:01:00,65.7,53.6,29.87,ENE,63,6.0,10.0,65,0.00,,---,0.00,VWS V14.00,2013-06-07 17:01:00,
2013-06-07 13:03:00,66.1,54.0,29.87,SE,130,10.0,12.0,65,0.00,,---,0.00,VWS V14.00,2013-06-07 17:03:00,
2013-06-07 13:04:00,66.1,54.0,29.87,SE,126,3.0,12.0,65,0.00,,---,0.00,VWS V14.00,2013-06-07 17:04:00,
2013-06-07 13:05:00,66.5,54.4,29.87,East,94,7.0,12.0,65,0.00,,---,0.00,VWS V14.00,2013-06-07 17:05:00,
2013-06-07 13:06:00,66.7,54.2,29.86,East,98,4.0,12.0,64,0.00,,---,0.00,VWS V14.00,2013-06-07 17:06:00,
2013-06-07 13:08:00,66.8,54.2,29.87,East,98,4.0,12.0,64,0.00,,---,0.00,VWS V14.00,2013-06-07 17:08:00,
2013-06-07 13:09:00,66.9,54.3,29.87,ENE,75,5.0,12.0,64,0.00,,---,0.00,VWS V14.00,2013-06-07 17:09:00,
2013-06-07 13:11:00,67.1,54.1,29.87,ENE,67,7.0,12.0,63,0.00,,---,0.00,VWS V14.00,2013-06-07 17:11:00,
2013-06-07 13:12:00,67.3,53.8,29.87,East,87,5.0,12.0,62,0.00,,---,0.00,VWS V14.00,2013-06-07 17:12:00,
2013-06-07 13:13:00,67.3,53.8,29.87,ENE,71,7.0,12.0,62,0.00,,---,0.00,VWS V14.00,2013-06-07 17:13:00,
2013-06-07 13:14:00,67.1,53.7,29.87,East,84,3.0,12.0,62,0.00,,---,0.00,VWS V14.00,2013-06-07 17:14:00,
2013-06-07 13:16:00,66.8,53.4,29.87,ENE,67,6.0,12.0,62,0.00,,---,0.00,VWS V14.00,2013-06-07 17:16:00,
2013-06-07 13:17:00,66.8,53.8,29.87,ENE,69,9.0,12.0,63,0.00,,---,0.00,VWS V14.00,2013-06-07 17:17:00,
2013-06-07 13:18:00,66.9,53.9,29.87,ENE,61,3.0,12.0,63,0.00,,---,0.00,VWS V14.00,2013-06-07 17:18:00,
2013-06-07 13:20:00,66.7,54.2,29.87,ENE,70,6.0,12.0,64,0.00,,---,0.00,VWS V14.00,2013-06-07 17:20:00,
2013-06-07 13:23:00,66.7,53.7,29.87,East,82,7.0,12.0,63,0.00,,---,0.00,VWS V14.00,2013-06-07 17:23:00,
2013-06-07 13:24:00,66.6,53.6,29.87,East,80,9.0,12.0,63,0.00,,---,0.00,VWS V14.00,2013-06-07 17:24:00,
2013-06-07 13:28:00,66.5,53.1,29.87,ENE,64,5.0,12.0,62,0.00,,---,0.00,VWS V14.00,2013-06-07 17:28:00,
2013-06-07 13:29:00,66.5,53.1,29.87,NE,47,5.0,7.0,62,0.00,,---,0.00,VWS V14.00,2013-06-07 17:29:00,
2013-06-07 13:31:00,66.9,53.9,29.87,NE,46,0.0,7.0,63,0.00,,---,0.00,VWS V14.00,2013-06-07 17:31:00,
2013-06-07 13:34:00,67.4,53.5,29.87,East,91,5.0,10.0,61,0.00,,---,0.00,VWS V14.00,2013-06-07 17:34:00,
2013-06-07 13:35:00,67.2,53.3,29.87,East,95,4.0,10.0,61,0.00,,---,0.00,VWS V14.00,2013-06-07 17:35:00,
2013-06-07 13:37:00,67.2,53.8,29.87,ENE,67,5.0,10.0,62,0.00,,---,0.00,VWS V14.00,2013-06-07 17:37:00,
2013-06-07 13:38:00,67.2,53.3,29.87,ENE,68,5.0,10.0,61,0.00,,---,0.00,VWS V14.00,2013-06-07 17:38:00,
2013-06-07 13:39:00,67.1,53.7,29.86,East,94,4.0,10.0,62,0.00,,---,0.00,VWS V14.00,2013-06-07 17:39:00,
2013-06-07 13:40:00,67.2,53.8,29.86,East,86,5.0,10.0,62,0.00,,---,0.00,VWS V14.00,2013-06-07 17:40:00,
2013-06-07 13:43:00,67.5,53.6,29.86,ENE,63,9.0,10.0,61,0.00,,---,0.00,VWS V14.00,2013-06-07 17:43:00,
2013-06-07 13:44:00,67.7,54.2,29.86,SE,139,6.0,10.0,62,0.00,,---,0.00,VWS V14.00,2013-06-07 17:44:00,
2013-06-07 13:48:00,68.0,53.6,29.86,ESE,113,7.0,10.0,60,0.00,,---,0.00,VWS V14.00,2013-06-07 17:48:00,
2013-06-07 13:49:00,68.0,53.6,29.86,ESE,119,9.0,12.0,60,0.00,,---,0.00,VWS V14.00,2013-06-07 17:49:00,
2013-06-07 13:50:00,68.0,53.6,29.86,ENE,75,7.0,12.0,60,0.00,,---,0.00,VWS V14.00,2013-06-07 17:50:00,
2013-06-07 13:51:00,67.9,53.5,29.86,ENE,61,9.0,12.0,60,0.00,,---,0.00,VWS V14.00,2013-06-07 17:51:00,
2013-06-07 13:53:00,67.8,53.4,29.86,ENE,67,8.0,12.0,60,0.00,,---,0.00,VWS V14.00,2013-06-07 17:53:00,
2013-06-07 13:55:00,67.5,53.1,29.86,ENE,70,3.0,12.0,60,0.00,,---,0.00,VWS V14.00,2013-06-07 17:55:00,
2013-06-07 13:57:00,67.3,53.0,29.86,East,93,8.0,12.0,60,0.00,,---,0.00,VWS V14.00,2013-06-07 17:57:00,
2013-06-07 14:00:00,67.6,53.2,29.86,ENE,69,10.0,13.0,60,0.00,,---,0.00,VWS V14.00,2013-06-07 18:00:00,
2013-06-07 14:02:00,67.7,53.3,29.86,ENE,71,9.0,13.0,60,0.00,,---,0.00,VWS V14.00,2013-06-07 18:02:00,
2013-06-07 14:03:00,67.7,53.3,29.86,ENE,67,5.0,13.0,60,0.00,,---,0.00,VWS V14.00,2013-06-07 18:03:00,
2013-06-07 14:05:00,67.7,53.3,29.86,ENE,72,10.0,13.0,60,0.00,,---,0.00,VWS V14.00,2013-06-07 18:05:00,
2013-06-07 14:07:00,67.8,53.0,29.85,NE,56,10.0,13.0,59,0.00,,---,0.00,VWS V14.00,2013-06-07 18:07:00,
2013-06-07 14:08:00,67.9,53.5,29.85,NE,52,8.0,13.0,60,0.00,,---,0.00,VWS V14.00,2013-06-07 18:08:00,
2013-06-07 14:11:00,68.2,53.8,29.85,NE,44,11.0,13.0,60,0.00,,---,0.00,VWS V14.00,2013-06-07 18:11:00,
2013-06-07 14:13:00,68.5,54.1,29.85,NE,40,10.0,13.0,60,0.00,,---,0.00,VWS V14.00,2013-06-07 18:13:00,
2013-06-07 14:14:00,68.5,54.1,29.85,NNE,27,4.0,13.0,60,0.00,,---,0.00,VWS V14.00,2013-06-07 18:14:00,
2013-06-07 14:16:00,68.6,53.7,29.85,ENE,65,4.0,13.0,59,0.00,,---,0.00,VWS V14.00,2013-06-07 18:16:00,
2013-06-07 14:19:00,68.5,53.6,29.85,NE,40,5.0,13.0,59,0.00,,---,0.00,VWS V14.00,2013-06-07 18:19:00,
2013-06-07 14:22:00,68.4,53.5,29.85,NNE,32,4.0,13.0,59,0.00,,---,0.00,VWS V14.00,2013-06-07 18:22:00,
2013-06-07 14:24:00,68.8,54.4,29.85,East,101,5.0,13.0,60,0.00,,---,0.00,VWS V14.00,2013-06-07 18:24:00,
2013-06-07 14:26:00,69.0,54.5,29.85,ESE,121,5.0,13.0,60,0.00,,---,0.00,VWS V14.00,2013-06-07 18:26:00,
2013-06-07 14:27:00,69.4,54.0,29.85,ESE,113,6.0,13.0,58,0.00,,---,0.00,VWS V14.00,2013-06-07 18:27:00,
2013-06-07 14:31:00,69.0,53.2,29.85,ENE,69,5.0,10.0,57,0.00,,---,0.00,VWS V14.00,2013-06-07 18:31:00,
2013-06-07 14:33:00,68.7,53.3,29.85,East,83,3.0,10.0,58,0.00,,---,0.00,VWS V14.00,2013-06-07 18:33:00,
2013-06-07 14:36:00,68.9,54.5,29.85,East,79,6.0,12.0,60,0.00,,---,0.00,VWS V14.00,2013-06-07 18:36:00,
2013-06-07 14:38:00,68.8,53.9,29.85,ENE,71,7.0,12.0,59,0.00,,---,0.00,VWS V14.00,2013-06-07 18:38:00,
2013-06-07 14:39:00,68.8,53.9,29.85,ENE,61,11.0,12.0,59,0.00,,---,0.00,VWS V14.00,2013-06-07 18:39:00,
2013-06-07 14:42:00,68.6,54.2,29.85,ESE,109,6.0,12.0,60,0.00,,---,0.00,VWS V14.00,2013-06-07 18:42:00,
2013-06-07 14:44:00,68.8,53.4,29.85,ESE,109,3.0,12.0,58,0.00,,---,0.00,VWS V14.00,2013-06-07 18:44:00,
2013-06-07 14:47:00,68.9,53.5,29.85,ENE,65,7.0,12.0,58,0.00,,---,0.00,VWS V14.00,2013-06-07 18:47:00,
2013-06-07 14:49:00,69.2,53.8,29.85,ESE,107,6.0,12.0,58,0.00,,---,0.00,VWS V14.00,2013-06-07 18:49:00,
2013-06-07 14:54:00,69.3,53.4,29.85,ENE,59,9.0,15.0,57,0.00,,---,0.00,VWS V14.00,2013-06-07 18:54:00,
2013-06-07 14:56:00,69.0,53.2,29.85,ENE,76,6.0,15.0,57,0.00,,---,0.00,VWS V14.00,2013-06-07 18:56:00,
2013-06-07 14:57:00,69.0,54.1,29.85,NE,48,3.0,15.0,59,0.00,,---,0.00,VWS V14.00,2013-06-07 18:57:00,
2013-06-07 15:00:00,69.2,53.8,29.85,NNE,17,5.0,10.0,58,0.00,,---,0.00,VWS V14.00,2013-06-07 19:00:00,
2013-06-07 15:01:00,69.4,53.5,29.85,NE,46,9.0,13.0,57,0.00,,---,0.00,VWS V14.00,2013-06-07 19:01:00,
2013-06-07 15:05:00,69.7,53.3,29.85,ENE,77,9.0,14.0,56,0.00,,---,0.00,VWS V14.00,2013-06-07 19:05:00,
2013-06-07 15:07:00,69.4,53.0,29.85,East,90,5.0,14.0,56,0.00,,---,0.00,VWS V14.00,2013-06-07 19:07:00,
2013-06-07 15:08:00,69.3,53.0,29.85,ESE,105,6.0,14.0,56,0.00,,---,0.00,VWS V14.00,2013-06-07 19:08:00,
2013-06-07 15:10:00,69.0,52.7,29.85,ENE,76,6.0,14.0,56,0.00,,---,0.00,VWS V14.00,2013-06-07 19:10:00,
2013-06-07 15:11:00,69.0,52.7,29.85,East,88,6.0,14.0,56,0.00,,---,0.00,VWS V14.00,2013-06-07 19:11:00,
2013-06-07 15:12:00,68.8,53.0,29.85,East,84,4.0,14.0,57,0.00,,---,0.00,VWS V14.00,2013-06-07 19:12:00,
2013-06-07 15:13:00,68.6,52.8,29.85,East,84,5.0,14.0,57,0.00,,---,0.00,VWS V14.00,2013-06-07 19:13:00,
2013-06-07 15:16:00,68.3,53.0,29.85,ENE,77,4.0,14.0,58,0.00,,---,0.00,VWS V14.00,2013-06-07 19:16:00,
2013-06-07 15:17:00,68.3,53.0,29.85,East,85,5.0,14.0,58,0.00,,---,0.00,VWS V14.00,2013-06-07 19:17:00,
2013-06-07 15:18:00,68.3,53.0,29.85,ENE,71,3.0,14.0,58,0.00,,---,0.00,VWS V14.00,2013-06-07 19:18:00,
2013-06-07 15:21:00,68.5,52.7,29.85,ENE,69,5.0,14.0,57,0.00,,---,0.00,VWS V14.00,2013-06-07 19:21:00,
2013-06-07 15:23:00,68.5,52.7,29.85,ENE,69,0.0,14.0,57,0.00,,---,0.00,VWS V14.00,2013-06-07 19:23:00,
2013-06-07 15:25:00,68.6,52.8,29.85,SE,134,0.0,14.0,57,0.00,,---,0.00,VWS V14.00,2013-06-07 19:25:00,
2013-06-07 15:27:00,68.7,52.9,29.85,East,86,0.0,14.0,57,0.00,,---,0.00,VWS V14.00,2013-06-07 19:27:00,
2013-06-07 15:28:00,68.7,53.3,29.85,East,84,0.0,0.0,58,0.00,,---,0.00,VWS V14.00,2013-06-07 19:28:00,
2013-06-07 15:30:00,68.9,53.1,29.85,East,84,0.0,1.0,57,0.00,,---,0.00,VWS V14.00,2013-06-07 19:30:00,
2013-06-07 15:31:00,69.0,53.6,29.85,East,83,0.0,1.0,58,0.00,,---,0.00,VWS V14.00,2013-06-07 19:31:00,
2013-06-07 15:33:00,69.4,53.0,29.85,East,92,0.0,2.0,56,0.00,,---,0.00,VWS V14.00,2013-06-07 19:33:00,
2013-06-07 15:36:00,69.5,53.1,29.85,East,88,1.0,2.0,56,0.00,,---,0.00,VWS V14.00,2013-06-07 19:36:00,
2013-06-07 15:37:00,69.4,52.5,29.85,East,86,0.0,2.0,55,0.00,,---,0.00,VWS V14.00,2013-06-07 19:37:00,
2013-06-07 15:38:00,69.4,52.5,29.85,East,95,0.0,2.0,55,0.00,,---,0.00,VWS V14.00,2013-06-07 19:38:00,
2013-06-07 15:39:00,69.3,53.0,29.85,East,101,0.0,2.0,56,0.00,,---,0.00,VWS V14.00,2013-06-07 19:39:00,
2013-06-07 15:43:00,68.8,52.5,29.85,ENE,61,1.0,2.0,56,0.00,,---,0.00,VWS V14.00,2013-06-07 19:43:00,
2013-06-07 15:44:00,68.8,52.5,29.85,ENE,71,0.0,2.0,56,0.00,,---,0.00,VWS V14.00,2013-06-07 19:44:00,
2013-06-07 15:47:00,68.8,53.0,29.84,ENE,61,0.0,2.0,57,0.00,,---,0.00,VWS V14.00,2013-06-07 19:47:00,
2013-06-07 15:49:00,68.8,53.0,29.84,ENE,61,2.0,2.0,57,0.00,,---,0.00,VWS V14.00,2013-06-07 19:49:00,
2013-06-07 15:50:00,68.9,53.1,29.84,NE,56,1.0,2.0,57,0.00,,---,0.00,VWS V14.00,2013-06-07 19:50:00,
2013-06-07 15:52:00,69.0,53.6,29.84,East,80,1.0,2.0,58,0.00,,---,0.00,VWS V14.00,2013-06-07 19:52:00,
2013-06-07 15:57:00,69.4,53.0,29.84,East,79,0.0,3.0,56,0.00,,---,0.00,VWS V14.00,2013-06-07 19:57:00,
2013-06-07 15:58:00,69.4,53.0,29.84,ENE,78,1.0,3.0,56,0.00,,---,0.00,VWS V14.00,2013-06-07 19:58:00,
2013-06-07 16:03:00,69.4,52.5,29.84,ENE,60,2.0,5.0,55,0.00,,---,0.00,VWS V14.00,2013-06-07 20:03:00,
2013-06-07 16:04:00,69.3,53.0,29.84,East,80,1.0,5.0,56,0.00,,---,0.00,VWS V14.00,2013-06-07 20:04:00,
2013-06-07 16:09:00,69.2,52.8,29.84,ENE,78,2.0,5.0,56,0.00,,---,0.00,VWS V14.00,2013-06-07 20:09:00,
2013-06-07 16:11:00,69.1,52.8,29.84,ENE,65,1.0,5.0,56,0.00,,---,0.00,VWS V14.00,2013-06-07 20:11:00,
2013-06-07 16:14:00,69.4,53.0,29.84,ESE,107,2.0,5.0,56,0.00,,---,0.00,VWS V14.00,2013-06-07 20:14:00,
2013-06-07 16:15:00,69.4,53.0,29.84,East,100,1.0,5.0,56,0.00,,---,0.00,VWS V14.00,2013-06-07 20:15:00,
2013-06-07 16:16:00,69.5,53.1,29.84,ESE,106,2.0,5.0,56,0.00,,---,0.00,VWS V14.00,2013-06-07 20:16:00,
2013-06-07 16:17:00,69.3,53.0,29.84,ESE,117,1.0,5.0,56,0.00,,---,0.00,VWS V14.00,2013-06-07 20:17:00,
2013-06-07 16:19:00,69.1,52.8,29.84,East,101,1.0,5.0,56,0.00,,---,0.00,VWS V14.00,2013-06-07 20:19:00,
2013-06-07 16:20:00,69.1,52.8,29.84,ESE,111,2.0,5.0,56,0.00,,---,0.00,VWS V14.00,2013-06-07 20:20:00,
2013-06-07 16:21:00,69.0,53.2,29.84,SE,125,1.0,5.0,57,0.00,,---,0.00,VWS V14.00,2013-06-07 20:21:00,
2013-06-07 16:24:00,69.1,53.2,29.84,ENE,73,1.0,5.0,57,0.00,,---,0.00,VWS V14.00,2013-06-07 20:24:00,
2013-06-07 16:25:00,69.0,53.2,29.84,East,79,1.0,5.0,57,0.00,,---,0.00,VWS V14.00,2013-06-07 20:25:00,
2013-06-07 16:29:00,69.2,53.3,29.84,NE,55,0.0,1.0,57,0.00,,---,0.00,VWS V14.00,2013-06-07 20:29:00,
2013-06-07 16:30:00,69.4,53.5,29.84,NNE,25,1.0,5.0,57,0.00,,---,0.00,VWS V14.00,2013-06-07 20:30:00,
2013-06-07 16:31:00,69.6,53.7,29.84,ENE,72,1.0,5.0,57,0.00,,---,0.00,VWS V14.00,2013-06-07 20:31:00,
2013-06-07 16:34:00,70.3,54.4,29.84,East,82,4.0,5.0,57,0.00,,---,0.00,VWS V14.00,2013-06-07 20:34:00,
2013-06-07 16:36:00,70.3,53.4,29.84,SE,134,3.0,7.0,55,0.00,,---,0.00,VWS V14.00,2013-06-07 20:36:00,
2013-06-07 16:39:00,69.9,53.5,29.84,ESE,105,1.0,7.0,56,0.00,,---,0.00,VWS V14.00,2013-06-07 20:39:00,
2013-06-07 16:40:00,69.7,53.3,29.84,East,82,2.0,7.0,56,0.00,,---,0.00,VWS V14.00,2013-06-07 20:40:00,
2013-06-07 16:41:00,69.5,53.1,29.84,East,86,0.0,7.0,56,0.00,,---,0.00,VWS V14.00,2013-06-07 20:41:00,
2013-06-07 16:44:00,69.2,52.8,29.84,East,92,0.0,7.0,56,0.00,,---,0.00,VWS V14.00,2013-06-07 20:44:00,
2013-06-07 16:46:00,69.3,53.0,29.84,East,80,1.0,7.0,56,0.00,,---,0.00,VWS V14.00,2013-06-07 20:46:00,
2013-06-07 16:51:00,70.2,53.3,29.84,ENE,77,0.0,7.0,55,0.00,,---,0.00,VWS V14.00,2013-06-07 20:51:00,
2013-06-07 16:53:00,70.8,53.8,29.84,ENE,67,0.0,7.0,55,0.00,,---,0.00,VWS V14.00,2013-06-07 20:53:00,
2013-06-07 16:56:00,71.3,53.8,29.84,East,82,4.0,7.0,54,0.00,,---,0.00,VWS V14.00,2013-06-07 20:56:00,
2013-06-07 16:58:00,70.8,53.3,29.84,East,98,2.0,7.0,54,0.00,,---,0.00,VWS V14.00,2013-06-07 20:58:00,
2013-06-07 17:01:00,70.3,52.9,29.84,ESE,117,3.0,9.0,54,0.00,,---,0.00,VWS V14.00,2013-06-07 21:01:00,
2013-06-07 17:02:00,70.3,52.9,29.84,ESE,113,2.0,9.0,54,0.00,,---,0.00,VWS V14.00,2013-06-07 21:02:00,
2013-06-07 17:03:00,70.1,53.2,29.84,East,101,1.0,9.0,55,0.00,,---,0.00,VWS V14.00,2013-06-07 21:03:00,
2013-06-07 17:06:00,69.6,53.2,29.84,East,90,1.0,9.0,56,0.00,,---,0.00,VWS V14.00,2013-06-07 21:06:00,
2013-06-07 17:07:00,69.5,53.1,29.84,East,90,0.0,9.0,56,0.00,,---,0.00,VWS V14.00,2013-06-07 21:07:00,
2013-06-07 17:09:00,69.5,53.1,29.84,ESE,107,0.0,9.0,56,0.00,,---,0.00,VWS V14.00,2013-06-07 21:09:00,
2013-06-07 17:10:00,69.5,53.1,29.84,ESE,114,0.0,9.0,56,0.00,,---,0.00,VWS V14.00,2013-06-07 21:10:00,
2013-06-07 17:13:00,69.9,53.5,29.84,East,92,3.0,9.0,56,0.00,,---,0.00,VWS V14.00,2013-06-07 21:13:00,
2013-06-07 17:15:00,70.1,53.2,29.84,SE,133,6.0,9.0,55,0.00,,---,0.00,VWS V14.00,2013-06-07 21:15:00,
2013-06-07 17:16:00,70.3,52.9,29.84,ESE,122,4.0,9.0,54,0.00,,---,0.00,VWS V14.00,2013-06-07 21:16:00,
2013-06-07 17:19:00,70.6,53.2,29.83,ENE,68,0.0,9.0,54,0.00,,---,0.00,VWS V14.00,2013-06-07 21:19:00,
2013-06-07 17:20:00,70.6,53.2,29.83,East,80,0.0,9.0,54,0.00,,---,0.00,VWS V14.00,2013-06-07 21:20:00,
2013-06-07 17:21:00,70.6,53.2,29.84,SE,126,3.0,9.0,54,0.00,,---,0.00,VWS V14.00,2013-06-07 21:21:00,
2013-06-07 17:23:00,70.7,53.3,29.83,ESE,103,3.0,9.0,54,0.00,,---,0.00,VWS V14.00,2013-06-07 21:23:00,
2013-06-07 17:24:00,70.8,53.3,29.84,SE,126,0.0,9.0,54,0.00,,---,0.00,VWS V14.00,2013-06-07 21:24:00,
2013-06-07 17:27:00,71.1,53.6,29.84,ENE,77,1.0,9.0,54,0.00,,---,0.00,VWS V14.00,2013-06-07 21:27:00,
2013-06-07 17:30:00,71.2,53.7,29.84,SE,125,0.0,4.0,54,0.00,,---,0.00,VWS V14.00,2013-06-07 21:30:00,
2013-06-07 17:32:00,71.3,53.3,29.83,ESE,122,0.0,5.0,53,0.00,,---,0.00,VWS V14.00,2013-06-07 21:32:00,
2013-06-07 17:33:00,71.3,53.3,29.83,ESE,109,0.0,5.0,53,0.00,,---,0.00,VWS V14.00,2013-06-07 21:33:00,
2013-06-07 17:35:00,71.3,53.3,29.83,ESE,115,3.0,5.0,53,0.00,,---,0.00,VWS V14.00,2013-06-07 21:35:00,
2013-06-07 17:37:00,71.2,53.2,29.83,East,84,0.0,5.0,53,0.00,,---,0.00,VWS V14.00,2013-06-07 21:37:00,
2013-06-07 17:39:00,71.2,53.7,29.84,ENE,67,1.0,5.0,54,0.00,,---,0.00,VWS V14.00,2013-06-07 21:39:00,
2013-06-07 17:40:00,71.1,53.6,29.83,ENE,60,0.0,7.0,54,0.00,,---,0.00,VWS V14.00,2013-06-07 21:40:00,
2013-06-07 17:43:00,71.0,53.0,29.83,East,80,4.0,7.0,53,0.00,,---,0.00,VWS V14.00,2013-06-07 21:43:00,
2013-06-07 17:44:00,70.8,52.8,29.83,ENE,76,3.0,7.0,53,0.00,,---,0.00,VWS V14.00,2013-06-07 21:44:00,
2013-06-07 17:45:00,70.8,52.8,29.83,ENE,76,1.0,7.0,53,0.00,,---,0.00,VWS V14.00,2013-06-07 21:45:00,
2013-06-07 17:47:00,70.4,52.5,29.83,East,89,1.0,7.0,53,0.00,,---,0.00,VWS V14.00,2013-06-07 21:47:00,
2013-06-07 17:49:00,70.3,52.4,29.83,East,86,1.0,7.0,53,0.00,,---,0.00,VWS V14.00,2013-06-07 21:49:00,
2013-06-07 17:51:00,70.2,52.3,29.84,East,80,4.0,7.0,53,0.00,,---,0.00,VWS V14.00,2013-06-07 21:51:00,
2013-06-07 17:52:00,70.2,52.3,29.84,East,92,4.0,7.0,53,0.00,,---,0.00,VWS V14.00,2013-06-07 21:52:00,
2013-06-07 17:56:00,69.8,52.4,29.83,East,80,0.0,7.0,54,0.00,,---,0.00,VWS V14.00,2013-06-07 21:56:00,
2013-06-07 17:57:00,69.8,52.4,29.84,East,81,1.0,7.0,54,0.00,,---,0.00,VWS V14.00,2013-06-07 21:57:00,
2013-06-07 17:58:00,69.8,52.4,29.84,ENE,78,5.0,7.0,54,0.00,,---,0.00,VWS V14.00,2013-06-07 21:58:00,
2013-06-07 18:02:00,69.6,52.7,29.83,East,98,1.0,3.0,55,0.00,,---,0.00,VWS V14.00,2013-06-07 22:02:00,
2013-06-07 18:06:00,69.5,52.6,29.83,ESE,102,1.0,4.0,55,0.00,,---,0.00,VWS V14.00,2013-06-07 22:06:00,
2013-06-07 18:07:00,69.5,52.6,29.84,ESE,102,0.0,4.0,55,0.00,,---,0.00,VWS V14.00,2013-06-07 22:07:00,
2013-06-07 18:10:00,69.8,52.9,29.83,SE,140,7.0,7.0,55,0.00,,---,0.00,VWS V14.00,2013-06-07 22:10:00,
2013-06-07 18:13:00,70.2,52.8,29.83,SE,137,0.0,7.0,54,0.00,,---,0.00,VWS V14.00,2013-06-07 22:13:00,
2013-06-07 18:14:00,70.4,53.0,29.83,SE,137,0.0,7.0,54,0.00,,---,0.00,VWS V14.00,2013-06-07 22:14:00,
2013-06-07 18:15:00,70.6,53.2,29.83,ESE,121,0.0,7.0,54,0.00,,---,0.00,VWS V14.00,2013-06-07 22:15:00,
2013-06-07 18:17:00,70.8,52.8,29.83,ESE,110,0.0,7.0,53,0.00,,---,0.00,VWS V14.00,2013-06-07 22:17:00,
2013-06-07 18:20:00,70.9,52.9,29.83,East,98,2.0,7.0,53,0.00,,---,0.00,VWS V14.00,2013-06-07 22:20:00,
2013-06-07 18:21:00,70.9,52.9,29.83,ESE,113,6.0,10.0,53,0.00,,---,0.00,VWS V14.00,2013-06-07 22:21:00,
2013-06-07 18:24:00,71.0,52.5,29.83,ESE,107,5.0,10.0,52,0.00,,---,0.00,VWS V14.00,2013-06-07 22:24:00,
2013-06-07 18:25:00,70.9,52.4,29.83,ESE,113,1.0,10.0,52,0.00,,---,0.00,VWS V14.00,2013-06-07 22:25:00,
2013-06-07 18:26:00,70.8,52.3,29.83,East,97,3.0,10.0,52,0.00,,---,0.00,VWS V14.00,2013-06-07 22:26:00,
2013-06-07 18:30:00,70.4,53.0,29.83,ESE,113,0.0,4.0,54,0.00,,---,0.00,VWS V14.00,2013-06-07 22:30:00,
2013-06-07 18:31:00,70.4,53.0,29.83,ESE,115,0.0,5.0,54,0.00,,---,0.00,VWS V14.00,2013-06-07 22:31:00,
2013-06-07 18:32:00,70.3,52.9,29.83,ESE,111,0.0,5.0,54,0.00,,---,0.00,VWS V14.00,2013-06-07 22:32:00,
2013-06-07 18:33:00,70.3,52.9,29.83,ESE,105,0.0,5.0,54,0.00,,---,0.00,VWS V14.00,2013-06-07 22:33:00,
2013-06-07 18:35:00,70.1,52.7,29.83,ESE,105,1.0,5.0,54,0.00,,---,0.00,VWS V14.00,2013-06-07 22:35:00,
2013-06-07 18:37:00,70.0,52.6,29.83,ESE,106,0.0,5.0,54,0.00,,---,0.00,VWS V14.00,2013-06-07 22:37:00,
2013-06-07 18:39:00,70.0,53.1,29.83,ESE,106,0.0,5.0,55,0.00,,---,0.00,VWS V14.00,2013-06-07 22:39:00,
2013-06-07 18:40:00,70.1,52.7,29.83,SE,130,4.0,6.0,54,0.00,,---,0.00,VWS V14.00,2013-06-07 22:40:00,
2013-06-07 18:41:00,70.1,52.7,29.83,SE,130,0.0,6.0,54,0.00,,---,0.00,VWS V14.00,2013-06-07 22:41:00,
2013-06-07 18:42:00,70.2,52.8,29.83,ESE,123,0.0,6.0,54,0.00,,---,0.00,VWS V14.00,2013-06-07 22:42:00,
2013-06-07 18:45:00,70.3,52.9,29.83,SE,125,0.0,6.0,54,0.00,,---,0.00,VWS V14.00,2013-06-07 22:45:00,
2013-06-07 18:47:00,70.4,53.0,29.83,ESE,117,3.0,6.0,54,0.00,,---,0.00,VWS V14.00,2013-06-07 22:47:00,
2013-06-07 18:48:00,70.5,53.1,29.83,ESE,120,5.0,7.0,54,0.00,,---,0.00,VWS V14.00,2013-06-07 22:48:00,
2013-06-07 18:51:00,70.3,52.9,29.83,ESE,102,0.0,7.0,54,0.00,,---,0.00,VWS V14.00,2013-06-07 22:51:00,
2013-06-07 18:52:00,70.3,52.9,29.83,ESE,102,0.0,7.0,54,0.00,,---,0.00,VWS V14.00,2013-06-07 22:52:00,
2013-06-07 18:54:00,70.3,52.9,29.83,ESE,105,1.0,7.0,54,0.00,,---,0.00,VWS V14.00,2013-06-07 22:54:00,
2013-06-07 18:55:00,70.3,52.9,29.83,ESE,107,1.0,7.0,54,0.00,,---,0.00,VWS V14.00,2013-06-07 22:55:00,
2013-06-07 18:58:00,70.1,52.7,29.83,East,80,0.0,7.0,54,0.00,,---,0.00,VWS V14.00,2013-06-07 22:58:00,
2013-06-07 18:59:00,70.1,52.7,29.83,East,80,2.0,3.0,54,0.00,,---,0.00,VWS V14.00,2013-06-07 22:59:00,
2013-06-07 19:00:00,70.2,52.8,29.83,ENE,64,5.0,5.0,54,0.00,,---,0.00,VWS V14.00,2013-06-07 23:00:00,
2013-06-07 19:05:00,70.1,52.7,29.83,ENE,65,3.0,7.0,54,0.00,,---,0.00,VWS V14.00,2013-06-07 23:05:00,
2013-06-07 19:06:00,70.0,52.6,29.83,ENE,65,0.0,7.0,54,0.00,,---,0.00,VWS V14.00,2013-06-07 23:06:00,
2013-06-07 19:10:00,70.1,53.2,29.83,East,80,2.0,7.0,55,0.00,,---,0.00,VWS V14.00,2013-06-07 23:10:00,
2013-06-07 19:11:00,70.1,53.2,29.83,East,94,2.0,7.0,55,0.00,,---,0.00,VWS V14.00,2013-06-07 23:11:00,
2013-06-07 19:15:00,70.3,53.4,29.83,ESE,119,1.0,7.0,55,0.00,,---,0.00,VWS V14.00,2013-06-07 23:15:00,
2013-06-07 19:16:00,70.3,53.9,29.83,SE,129,5.0,7.0,56,0.00,,---,0.00,VWS V14.00,2013-06-07 23:16:00,
2013-06-07 19:17:00,70.2,53.3,29.82,ESE,121,0.0,7.0,55,0.00,,---,0.00,VWS V14.00,2013-06-07 23:17:00,
2013-06-07 19:18:00,70.3,53.9,29.82,East,99,3.0,7.0,56,0.00,,---,0.00,VWS V14.00,2013-06-07 23:18:00,
2013-06-07 19:20:00,70.2,53.8,29.82,ESE,109,4.0,7.0,56,0.00,,---,0.00,VWS V14.00,2013-06-07 23:20:00,
2013-06-07 19:21:00,70.1,53.7,29.83,ESE,102,0.0,7.0,56,0.00,,---,0.00,VWS V14.00,2013-06-07 23:21:00,
2013-06-07 19:22:00,70.0,54.1,29.83,ESE,111,0.0,7.0,57,0.00,,---,0.00,VWS V14.00,2013-06-07 23:22:00,
2013-06-07 19:24:00,70.0,54.1,29.83,SE,145,1.0,7.0,57,0.00,,---,0.00,VWS V14.00,2013-06-07 23:24:00,
2013-06-07 19:29:00,69.9,53.5,29.83,SE,134,1.0,2.0,56,0.00,,---,0.00,VWS V14.00,2013-06-07 23:29:00,
2013-06-07 19:30:00,69.9,53.5,29.83,SE,145,5.0,5.0,56,0.00,,---,0.00,VWS V14.00,2013-06-07 23:30:00,
2013-06-07 19:31:00,69.9,53.5,29.83,SE,145,3.0,7.0,56,0.00,,---,0.00,VWS V14.00,2013-06-07 23:31:00,
2013-06-07 19:36:00,70.0,53.6,29.83,ESE,115,1.0,7.0,56,0.00,,---,0.00,VWS V14.00,2013-06-07 23:36:00,
2013-06-07 19:37:00,69.9,53.5,29.83,East,101,0.0,7.0,56,0.00,,---,0.00,VWS V14.00,2013-06-07 23:37:00,
2013-06-07 19:38:00,69.9,53.0,29.83,East,99,0.0,7.0,55,0.00,,---,0.00,VWS V14.00,2013-06-07 23:38:00,
2013-06-07 19:40:00,69.8,52.9,29.83,East,99,0.0,7.0,55,0.00,,---,0.00,VWS V14.00,2013-06-07 23:40:00,
2013-06-07 19:42:00,69.7,53.3,29.83,East,98,3.0,7.0,56,0.00,,---,0.00,VWS V14.00,2013-06-07 23:42:00,
2013-06-07 19:43:00,69.7,53.3,29.83,East,101,1.0,7.0,56,0.00,,---,0.00,VWS V14.00,2013-06-07 23:43:00,
2013-06-07 19:44:00,69.7,53.3,29.83,ESE,102,3.0,7.0,56,0.00,,---,0.00,VWS V14.00,2013-06-07 23:44:00,
2013-06-07 19:46:00,69.7,53.3,29.83,ESE,122,0.0,7.0,56,0.00,,---,0.00,VWS V14.00,2013-06-07 23:46:00,
2013-06-07 19:47:00,69.6,53.2,29.83,ESE,122,3.0,7.0,56,0.00,,---,0.00,VWS V14.00,2013-06-07 23:47:00,
2013-06-07 19:49:00,69.5,53.1,29.83,ESE,122,0.0,7.0,56,0.00,,---,0.00,VWS V14.00,2013-06-07 23:49:00,
2013-06-07 19:54:00,69.2,52.8,29.83,ESE,123,0.0,7.0,56,0.00,,---,0.00,VWS V14.00,2013-06-07 23:54:00,
2013-06-07 19:55:00,69.0,53.2,29.83,ESE,123,0.0,7.0,57,0.00,,---,0.00,VWS V14.00,2013-06-07 23:55:00,
2013-06-07 20:00:00,69.0,53.6,29.83,ESE,106,0.0,0.0,58,0.00,,---,0.00,VWS V14.00,2013-06-08 00:00:00,
2013-06-07 20:01:00,69.1,53.7,29.83,SE,126,0.0,4.0,58,0.00,,---,0.00,VWS V14.00,2013-06-08 00:01:00,
2013-06-07 20:02:00,69.2,53.8,29.83,SE,127,0.0,4.0,58,0.00,,---,0.00,VWS V14.00,2013-06-08 00:02:00,
2013-06-07 20:06:00,69.1,53.7,29.83,SE,144,5.0,7.0,58,0.00,,---,0.00,VWS V14.00,2013-06-08 00:06:00,
2013-06-07 20:07:00,69.0,53.6,29.83,SE,146,4.0,7.0,58,0.00,,---,0.00,VWS V14.00,2013-06-08 00:07:00,
2013-06-07 20:11:00,68.7,53.3,29.83,SE,136,3.0,7.0,58,0.00,,---,0.00,VWS V14.00,2013-06-08 00:11:00,
2013-06-07 20:12:00,68.6,53.2,29.83,SE,136,3.0,7.0,58,0.00,,---,0.00,VWS V14.00,2013-06-08 00:12:00,
2013-06-07 20:13:00,68.5,53.2,29.83,SE,140,0.0,7.0,58,0.00,,---,0.00,VWS V14.00,2013-06-08 00:13:00,
2013-06-07 20:17:00,68.3,53.9,29.83,SE,146,2.0,7.0,60,0.00,,---,0.00,VWS V14.00,2013-06-08 00:17:00,
2013-06-07 20:18:00,68.2,53.8,29.83,SE,146,2.0,7.0,60,0.00,,---,0.00,VWS V14.00,2013-06-08 00:18:00,
2013-06-07 20:19:00,68.2,53.8,29.83,SE,146,2.0,7.0,60,0.00,,---,0.00,VWS V14.00,2013-06-08 00:19:00,
2013-06-07 20:23:00,68.1,54.2,29.83,SE,146,0.0,7.0,61,0.00,,---,0.00,VWS V14.00,2013-06-08 00:23:00,
2013-06-07 20:25:00,68.1,54.2,29.83,SE,146,1.0,7.0,61,0.00,,---,0.00,VWS V14.00,2013-06-08 00:25:00,
2013-06-07 20:26:00,68.1,54.2,29.84,SE,146,1.0,7.0,61,0.00,,---,0.00,VWS V14.00,2013-06-08 00:26:00,
2013-06-07 20:30:00,67.9,53.5,29.84,SE,146,0.0,0.0,60,0.00,,---,0.00,VWS V14.00,2013-06-08 00:30:00,
2013-06-07 20:32:00,67.7,53.3,29.83,SE,145,0.0,0.0,60,0.00,,---,0.00,VWS V14.00,2013-06-08 00:32:00,
2013-06-07 20:34:00,67.6,53.2,29.83,SE,146,0.0,0.0,60,0.00,,---,0.00,VWS V14.00,2013-06-08 00:34:00,
2013-06-07 20:35:00,67.5,53.1,29.84,SE,146,3.0,5.0,60,0.00,,---,0.00,VWS V14.00,2013-06-08 00:35:00,
2013-06-07 20:37:00,67.4,53.0,29.84,SE,145,3.0,5.0,60,0.00,,---,0.00,VWS V14.00,2013-06-08 00:37:00,
2013-06-07 20:38:00,67.3,53.0,29.84,SE,145,2.0,5.0,60,0.00,,---,0.00,VWS V14.00,2013-06-08 00:38:00,
2013-06-07 20:42:00,67.2,52.9,29.84,SE,145,2.0,5.0,60,0.00,,---,0.00,VWS V14.00,2013-06-08 00:42:00,
2013-06-07 20:43:00,67.1,52.8,29.84,SE,145,1.0,5.0,60,0.00,,---,0.00,VWS V14.00,2013-06-08 00:43:00,
2013-06-07 20:45:00,67.0,53.1,29.84,SE,145,1.0,5.0,61,0.00,,---,0.00,VWS V14.00,2013-06-08 00:45:00,
2013-06-07 20:47:00,67.0,53.1,29.84,SE,145,0.0,5.0,61,0.00,,---,0.00,VWS V14.00,2013-06-08 00:47:00,
2013-06-07 20:48:00,67.0,53.1,29.84,SE,145,0.0,5.0,61,0.00,,---,0.00,VWS V14.00,2013-06-08 00:48:00,
2013-06-07 20:54:00,66.8,53.4,29.84,SE,145,0.0,5.0,62,0.00,,---,0.00,VWS V14.00,2013-06-08 00:54:00,
2013-06-07 20:56:00,66.7,53.3,29.84,SE,145,0.0,5.0,62,0.00,,---,0.00,VWS V14.00,2013-06-08 00:56:00,
2013-06-07 20:59:00,66.5,53.1,29.84,SE,145,2.0,3.0,62,0.00,,---,0.00,VWS V14.00,2013-06-08 00:59:00,
2013-06-07 21:00:00,66.5,53.5,29.84,SE,145,2.0,3.0,63,0.00,,---,0.00,VWS V14.00,2013-06-08 01:00:00,
2013-06-07 21:02:00,66.4,53.4,29.85,SE,145,0.0,3.0,63,0.00,,---,0.00,VWS V14.00,2013-06-08 01:02:00,
2013-06-07 21:04:00,66.3,53.3,29.85,SE,145,0.0,3.0,63,0.00,,---,0.00,VWS V14.00,2013-06-08 01:04:00,
2013-06-07 21:06:00,66.2,53.7,29.85,SE,145,0.0,3.0,64,0.00,,---,0.00,VWS V14.00,2013-06-08 01:06:00,
2013-06-07 21:08:00,66.1,53.6,29.85,SE,145,0.0,3.0,64,0.00,,---,0.00,VWS V14.00,2013-06-08 01:08:00,
2013-06-07 21:10:00,66.0,53.5,29.85,SE,145,0.0,3.0,64,0.00,,---,0.00,VWS V14.00,2013-06-08 01:10:00,
2013-06-07 21:11:00,65.9,53.4,29.85,SE,145,0.0,3.0,64,0.00,,---,0.00,VWS V14.00,2013-06-08 01:11:00,
2013-06-07 21:12:00,65.9,53.4,29.85,SE,145,0.0,3.0,64,0.00,,---,0.00,VWS V14.00,2013-06-08 01:12:00,
2013-06-07 21:15:00,65.8,53.7,29.85,SE,145,0.0,3.0,65,0.00,,---,0.00,VWS V14.00,2013-06-08 01:15:00,
2013-06-07 21:16:00,65.7,53.6,29.85,SE,145,0.0,3.0,65,0.00,,---,0.00,VWS V14.00,2013-06-08 01:16:00,
2013-06-07 21:17:00,65.6,53.5,29.85,SE,145,0.0,3.0,65,0.00,,---,0.00,VWS V14.00,2013-06-08 01:17:00,
2013-06-07 21:18:00,65.6,53.5,29.85,SE,145,0.0,3.0,65,0.00,,---,0.00,VWS V14.00,2013-06-08 01:18:00,
2013-06-07 21:23:00,65.3,53.7,29.85,SE,145,0.0,3.0,66,0.00,,---,0.00,VWS V14.00,2013-06-08 01:23:00,
2013-06-07 21:24:00,65.3,53.7,29.85,SE,145,0.0,3.0,66,0.00,,---,0.00,VWS V14.00,2013-06-08 01:24:00,
2013-06-07 21:27:00,65.2,53.6,29.85,SE,145,0.0,3.0,66,0.00,,---,0.00,VWS V14.00,2013-06-08 01:27:00,
2013-06-07 21:29:00,65.1,53.5,29.85,SE,145,0.0,0.0,66,0.00,,---,0.00,VWS V14.00,2013-06-08 01:29:00,
2013-06-07 21:30:00,65.1,53.5,29.85,SE,145,0.0,0.0,66,0.00,,---,0.00,VWS V14.00,2013-06-08 01:30:00,
2013-06-07 21:33:00,64.9,53.7,29.85,SE,145,0.0,0.0,67,0.00,,---,0.00,VWS V14.00,2013-06-08 01:33:00,
2013-06-07 21:35:00,64.9,53.7,29.85,SE,145,0.0,0.0,67,0.00,,---,0.00,VWS V14.00,2013-06-08 01:35:00,
2013-06-07 21:37:00,64.7,53.5,29.85,SE,145,0.0,0.0,67,0.00,,---,0.00,VWS V14.00,2013-06-08 01:37:00,
2013-06-07 21:38:00,64.6,53.4,29.85,SE,145,0.0,0.0,67,0.00,,---,0.00,VWS V14.00,2013-06-08 01:38:00,
2013-06-07 21:40:00,64.5,53.3,29.85,SE,144,0.0,0.0,67,0.00,,---,0.00,VWS V14.00,2013-06-08 01:40:00,
2013-06-07 21:43:00,64.4,53.6,29.86,SE,144,2.0,2.0,68,0.00,,---,0.00,VWS V14.00,2013-06-08 01:43:00,
2013-06-07 21:44:00,64.3,53.5,29.86,SE,144,0.0,2.0,68,0.00,,---,0.00,VWS V14.00,2013-06-08 01:44:00,
2013-06-07 21:45:00,64.3,53.5,29.86,SE,144,0.0,2.0,68,0.00,,---,0.00,VWS V14.00,2013-06-08 01:45:00,
2013-06-07 21:49:00,64.0,53.6,29.86,SE,145,2.0,5.0,69,0.00,,---,0.00,VWS V14.00,2013-06-08 01:49:00,
2013-06-07 21:51:00,63.9,53.5,29.86,SE,145,0.0,5.0,69,0.00,,---,0.00,VWS V14.00,2013-06-08 01:51:00,
2013-06-07 21:52:00,63.9,53.5,29.86,SE,145,1.0,5.0,69,0.00,,---,0.00,VWS V14.00,2013-06-08 01:52:00,
2013-06-07 21:53:00,63.9,53.5,29.86,SE,144,0.0,5.0,69,0.00,,---,0.00,VWS V14.00,2013-06-08 01:53:00,
2013-06-07 21:55:00,63.7,53.3,29.86,SE,144,0.0,5.0,69,0.00,,---,0.00,VWS V14.00,2013-06-08 01:55:00,
2013-06-07 21:57:00,63.7,53.3,29.86,SE,144,0.0,5.0,69,0.00,,---,0.00,VWS V14.00,2013-06-08 01:57:00,
2013-06-07 21:58:00,63.6,53.7,29.86,SE,144,0.0,5.0,70,0.00,,---,0.00,VWS V14.00,2013-06-08 01:58:00,
2013-06-07 21:59:00,63.6,53.7,29.86,SE,144,3.0,3.0,70,0.00,,---,0.00,VWS V14.00,2013-06-08 01:59:00,
2013-06-07 22:02:00,63.5,53.5,29.86,SE,144,0.0,3.0,70,0.00,,---,0.00,VWS V14.00,2013-06-08 02:02:00,
2013-06-07 22:03:00,63.5,53.5,29.86,SE,144,0.0,3.0,70,0.00,,---,0.00,VWS V14.00,2013-06-08 02:03:00,
2013-06-07 22:05:00,63.4,53.5,29.86,SE,144,0.0,3.0,70,0.00,,---,0.00,VWS V14.00,2013-06-08 02:05:00,
2013-06-07 22:07:00,63.4,53.5,29.87,SE,145,0.0,3.0,70,0.00,,---,0.00,VWS V14.00,2013-06-08 02:07:00,
2013-06-07 22:10:00,63.3,53.4,29.87,SE,145,0.0,3.0,70,0.00,,---,0.00,VWS V14.00,2013-06-08 02:10:00,
2013-06-07 22:11:00,63.3,53.4,29.87,SE,145,0.0,3.0,70,0.00,,---,0.00,VWS V14.00,2013-06-08 02:11:00,
2013-06-07 22:13:00,63.3,53.4,29.87,SE,145,0.0,3.0,70,0.00,,---,0.00,VWS V14.00,2013-06-08 02:13:00,
2013-06-07 22:14:00,63.2,53.3,29.87,SE,145,0.0,3.0,70,0.00,,---,0.00,VWS V14.00,2013-06-08 02:14:00,
2013-06-07 22:17:00,63.2,53.3,29.87,SE,145,0.0,3.0,70,0.00,,---,0.00,VWS V14.00,2013-06-08 02:17:00,
2013-06-07 22:19:00,63.1,53.6,29.87,SE,145,0.0,3.0,71,0.00,,---,0.00,VWS V14.00,2013-06-08 02:19:00,
2013-06-07 22:20:00,63.1,53.6,29.87,SE,145,0.0,3.0,71,0.00,,---,0.00,VWS V14.00,2013-06-08 02:20:00,
2013-06-07 22:23:00,63.0,53.5,29.87,SE,145,0.0,3.0,71,0.00,,---,0.00,VWS V14.00,2013-06-08 02:23:00,
2013-06-07 22:24:00,62.9,53.8,29.87,SE,145,0.0,3.0,72,0.00,,---,0.00,VWS V14.00,2013-06-08 02:24:00,
2013-06-07 22:28:00,62.3,53.5,29.87,SE,145,0.0,3.0,73,0.00,,---,0.00,VWS V14.00,2013-06-08 02:28:00,
2013-06-07 22:30:00,62.1,53.7,29.87,SE,145,0.0,0.0,74,0.00,,---,0.00,VWS V14.00,2013-06-08 02:30:00,
2013-06-07 22:31:00,61.9,53.5,29.87,SE,145,0.0,0.0,74,0.00,,---,0.00,VWS V14.00,2013-06-08 02:31:00,
2013-06-07 22:34:00,61.6,53.6,29.87,SE,145,0.0,0.0,75,0.00,,---,0.00,VWS V14.00,2013-06-08 02:34:00,
2013-06-07 22:35:00,61.5,53.5,29.87,SE,145,0.0,0.0,75,0.00,,---,0.00,VWS V14.00,2013-06-08 02:35:00,
2013-06-07 22:37:00,61.4,53.4,29.87,SE,145,0.0,0.0,75,0.00,,---,0.00,VWS V14.00,2013-06-08 02:37:00,
2013-06-07 22:39:00,61.2,53.2,29.87,SE,145,0.0,0.0,75,0.00,,---,0.00,VWS V14.00,2013-06-08 02:39:00,
2013-06-07 22:42:00,61.1,53.5,29.88,SE,145,0.0,0.0,76,0.00,,---,0.00,VWS V14.00,2013-06-08 02:42:00,
2013-06-07 22:43:00,61.1,53.5,29.88,SE,145,0.0,0.0,76,0.00,,---,0.00,VWS V14.00,2013-06-08 02:43:00,
2013-06-07 22:45:00,61.0,53.8,29.88,SE,145,0.0,0.0,77,0.00,,---,0.00,VWS V14.00,2013-06-08 02:45:00,
2013-06-07 22:50:00,60.8,53.9,29.88,SE,144,0.0,0.0,78,0.00,,---,0.00,VWS V14.00,2013-06-08 02:50:00,
2013-06-07 22:51:00,60.8,53.9,29.88,SE,145,0.0,0.0,78,0.00,,---,0.00,VWS V14.00,2013-06-08 02:51:00,
2013-06-07 22:55:00,60.5,53.6,29.88,SE,145,0.0,0.0,78,0.00,,---,0.00,VWS V14.00,2013-06-08 02:55:00,
2013-06-07 22:56:00,60.4,53.9,29.88,SE,145,0.0,0.0,79,0.00,,---,0.00,VWS V14.00,2013-06-08 02:56:00,
2013-06-07 22:57:00,60.4,53.9,29.88,SE,145,0.0,0.0,79,0.00,,---,0.00,VWS V14.00,2013-06-08 02:57:00,
2013-06-07 22:58:00,60.3,53.8,29.87,SE,145,0.0,0.0,79,0.00,,---,0.00,VWS V14.00,2013-06-08 02:58:00,
2013-06-07 23:01:00,60.2,53.7,29.87,SE,145,0.0,0.0,79,0.00,,---,0.00,VWS V14.00,2013-06-08 03:01:00,
2013-06-07 23:02:00,60.2,53.7,29.87,SE,144,0.0,0.0,79,0.00,,---,0.00,VWS V14.00,2013-06-08 03:02:00,
2013-06-07 23:03:00,60.1,53.6,29.87,SE,145,0.0,0.0,79,0.00,,---,0.00,VWS V14.00,2013-06-08 03:03:00,
2013-06-07 23:04:00,60.1,53.6,29.88,SE,145,0.0,0.0,79,0.00,,---,0.00,VWS V14.00,2013-06-08 03:04:00,
2013-06-07 23:07:00,59.9,53.4,29.87,SE,145,0.0,0.0,79,0.00,,---,0.00,VWS V14.00,2013-06-08 03:07:00,
2013-06-07 23:08:00,59.9,53.4,29.87,SE,144,0.0,0.0,79,0.00,,---,0.00,VWS V14.00,2013-06-08 03:08:00,
2013-06-07 23:09:00,59.8,53.3,29.87,SE,145,0.0,0.0,79,0.00,,---,0.00,VWS V14.00,2013-06-08 03:09:00,
2013-06-07 23:12:00,59.7,53.5,29.88,SE,145,0.0,0.0,80,0.00,,---,0.00,VWS V14.00,2013-06-08 03:12:00,
2013-06-07 23:14:00,59.6,53.4,29.87,SE,145,0.0,0.0,80,0.00,,---,0.00,VWS V14.00,2013-06-08 03:14:00,
2013-06-07 23:15:00,59.5,53.3,29.87,SE,144,0.0,0.0,80,0.00,,---,0.00,VWS V14.00,2013-06-08 03:15:00,
2013-06-07 23:19:00,59.3,53.1,29.88,SE,145,0.0,0.0,80,0.00,,---,0.00,VWS V14.00,2013-06-08 03:19:00,
2013-06-07 23:21:00,59.1,52.9,29.88,SE,145,0.0,0.0,80,0.00,,---,0.00,VWS V14.00,2013-06-08 03:21:00,
2013-06-07 23:23:00,59.0,53.2,29.88,SE,145,0.0,0.0,81,0.00,,---,0.00,VWS V14.00,2013-06-08 03:23:00,
2013-06-07 23:24:00,59.0,53.2,29.88,SE,145,0.0,0.0,81,0.00,,---,0.00,VWS V14.00,2013-06-08 03:24:00,
2013-06-07 23:25:00,59.0,53.2,29.88,SE,145,0.0,0.0,81,0.00,,---,0.00,VWS V14.00,2013-06-08 03:25:00,
2013-06-07 23:27:00,59.0,53.2,29.88,SE,145,0.0,0.0,81,0.00,,---,0.00,VWS V14.00,2013-06-08 03:27:00,
2013-06-07 23:29:00,59.0,53.2,29.88,SE,145,0.0,0.0,81,0.00,,---,0.00,VWS V14.00,2013-06-08 03:29:00,
2013-06-07 23:30:00,59.0,53.2,29.88,SE,145,0.0,0.0,81,0.00,,---,0.00,VWS V14.00,2013-06-08 03:30:00,
2013-06-07 23:34:00,58.7,53.2,29.88,SE,144,0.0,0.0,82,0.00,,---,0.00,VWS V14.00,2013-06-08 03:34:00,
2013-06-07 23:35:00,58.6,53.1,29.88,SE,144,0.0,0.0,82,0.00,,---,0.00,VWS V14.00,2013-06-08 03:35:00,
2013-06-07 23:36:00,58.5,53.0,29.88,SE,145,0.0,0.0,82,0.00,,---,0.00,VWS V14.00,2013-06-08 03:36:00,
2013-06-07 23:40:00,58.3,53.2,29.88,SE,145,0.0,0.0,83,0.00,,---,0.00,VWS V14.00,2013-06-08 03:40:00,
2013-06-07 23:41:00,58.2,53.1,29.88,SE,145,0.0,0.0,83,0.00,,---,0.00,VWS V14.00,2013-06-08 03:41:00,
2013-06-07 23:45:00,58.1,53.0,29.88,SE,145,0.0,0.0,83,0.00,,---,0.00,VWS V14.00,2013-06-08 03:45:00,
2013-06-07 23:46:00,58.0,52.9,29.88,SE,145,0.0,0.0,83,0.00,,---,0.00,VWS V14.00,2013-06-08 03:46:00,
2013-06-07 23:47:00,58.0,52.9,29.88,SE,145,0.0,0.0,83,0.00,,---,0.00,VWS V14.00,2013-06-08 03:47:00,
2013-06-07 23:51:00,57.8,53.0,29.88,SE,145,0.0,0.0,84,0.00,,---,0.00,VWS V14.00,2013-06-08 03:51:00,
2013-06-07 23:54:00,57.7,52.9,29.88,SE,145,0.0,0.0,84,0.00,,---,0.00,VWS V14.00,2013-06-08 03:54:00,
2013-06-07 23:56:00,57.7,52.9,29.88,SE,145,0.0,0.0,84,0.00,,---,0.00,VWS V14.00,2013-06-08 03:56:00,
2013-06-07 23:57:00,57.7,52.9,29.88,SE,144,0.0,0.0,84,0.00,,---,0.00,VWS V14.00,2013-06-08 03:57:00,